     2              OBSERVATION DATA    GPS                 RINEX VERSION / TYPE
ASRINEXO V2.2.0 UX USGS 28-MAR-94 15:16                     PGM / RUN BY / DATE
                                                            COMMENT
Original Marker Name: sprn Spring_1947_USGS                 COMMENT
Campaign Name: gorlock willow tie                           COMMENT
4-Character Station Name: SPRN                              COMMENT
6-Character Antenna Code: ASHL12                            COMMENT
Vertical Measurement Point: BBE                             COMMENT
Vertical Offset to Rinex Ref. Point: 0.0595                 COMMENT
Radial Measurement Point: EGP                               COMMENT
Radial Offset to Rinex Ref. Point: 0.1424                   COMMENT
Antenna Height from Field Measurement: 0.5300 m             COMMENT
Additional Antenna Identification Info.:                    COMMENT
Original Ashtech L1/L2                                      COMMENT
Original XYZ: -2328643.8600 -4636367.3700 3699165.4500      COMMENT
New XYZ position is based on association with SCEC monument COMMENT
E1F4J8B8+0011. Position of that monument is believed to be  COMMENT
valid to within 1 m horizontally; vertical accuracy         COMMENT
should be no worse than 3-times this value.                 COMMENT
                                                            COMMENT
Revised Rinex header created by UCSD GPS archive for        COMMENT
GSAC on 25-May-2001 (2001:145) 15:35:44 GMT                 COMMENT
For assistance contact dagnew@ucsd.edu or hjohnson@ucsd.edu COMMENT
                                                            COMMENT
SPRN SPRING_1947_USGS                                       MARKER NAME
                                                            MARKER NUMBER
KWC US GEOLOGICAL SURVEY                                    OBSERVER / AGENCY
763 ASHTECH L-XII 7A                                        REC # / TYPE / VERS
718 ASHTECH GEODETIC L                                      ANT # / TYPE
 -2328625.3341 -4636276.9174  3699118.7301                  APPROX POSITION XYZ
        0.4510        0.0000        0.0000                  ANTENNA: DELTA H/E/N
     1     2     0                                          WAVELENGTH FACT L1/2
     3    C1    L1    L2                                    # / TYPES OF OBSERV
    30                                                      INTERVAL
  1994     3    22    17    38    0.000000                  TIME OF FIRST OBS
  1994     3    22    19    28    0.000000                  TIME OF LAST OBS
                                                            END OF HEADER
 94  3 22 17 38  0.0000000  0  4 19 22 18 14
  22268555.270     9360474.16017    -58087.060
  22602336.968      182137.36717     94613.053
  20944231.500    18555998.73919    -40013.666 1
  22539756.341     -158192.41816    220648.494
 94  3 22 17 38 30.0000000  0  4 19 22 18 14
  22259049.181     9310504.177 7    -97028.737
  22618734.326      268326.838 7    161780.455
  20936632.451    18516071.060 9    -71126.171 5
  22560013.977      -51729.855 6    303598.042 1
 94  3 22 17 39  0.0000000  0  4 19 22 18 14
  22249578.557     9260738.928 7   -135803.765 2
  22635212.658      354911.755 7    229251.055 1
  20929088.683    18476438.558 9   -102008.633 7
  22580331.182       55049.915 6    386802.961 2
 94  3 22 17 39 30.0000000  0  5 19 29 22 18 14
  22240153.382     9211198.742 7   -174406.470 3
  20729824.191    -2343674.86218     26823.043 1
  22651770.286      441923.774 7    297052.579 3
  20921615.187    18437158.108 9   -132616.755 9
  22600714.791      162171.597 6    470274.327 3
 94  3 22 17 40  0.0000000  0  5 19 29 22 18 14
  22230763.792     9161872.479 7   -212842.506 4
  20732463.924    -2329806.544 8     37629.304 1
  22668406.998      529340.427 7    365169.399 4
  20914207.435    18398221.975 9   -162956.593 9
  22621161.116      269601.004 6    553985.419 4
 94  3 22 17 40 30.0000000  0  5 19 29 22 18 14
  22221416.983     9112766.121 7   -251107.199 5
  20735171.679    -2315575.124 8     48718.442 3
  22685115.062      617132.224 7    433578.528 4
  20906860.662    18359616.063 9   -193039.109 9
  22641660.085      377312.209 6    637916.133 4
 94  3 22 17 41  0.0000000  0  5 19 29 22 18 14
  22212120.389     9063898.233 7   -289186.032 5
  20737946.169    -2300982.696 8     60089.155 7
  22701884.912      705288.976 7    502272.035 5
  20899577.174    18321342.644 9   -222862.536 9
  22662206.031      485287.932 6    722052.943 4
 94  3 22 17 41 30.0000000  0  5 19 29 22 18 14
  22202868.374     9015285.716 7   -327065.889 6
  20740789.910    -2286033.962 8     71737.487 9
  22718731.629      793798.476 6    571240.440 5
  20892356.133    18283388.027 9   -252437.537 9
  22682799.615      593516.875 6    806387.091 5
 94  3 22 17 42  0.0000000  0  5 19 29 22 18 14
  22193667.953     8966939.768 7   -364738.020 6
  20743704.522    -2270720.204 8     83670.293 9
  22735640.703      882656.991 6    640480.787 5
  20885187.466    18245729.200 9   -281782.051 9
  22703445.991      701998.348 6    890918.005 5
 94  3 22 17 42 30.0000000  0  7 19 29 22 28 18 27 14
  22184518.557     8918850.952 7   -402209.790 6
  20746688.207    -2255036.927 8     95891.035 9
  22752611.115      971858.051 7    709988.064 6
  24334430.464     -613176.62015   -101219.912
  20878076.029    18208355.427 9   -310904.448 9
  24560223.831     -444559.13014   -196626.395 1
  22724139.106      810728.701 6    975642.855 5
 94  3 22 17 43  0.0000000  0  7 19 29 22 28 18 27 14
  22175415.389     8871018.193 7   -439482.062 6
  20749747.619    -2238969.101 8    108411.389 9
  22769661.272     1061431.185 6    779785.238 6
  24323844.823     -668802.787 5   -144564.842 1
  20871019.694    18171276.318 9   -339797.257 9
  24546132.476     -518582.565 4   -254306.897 1
  22744878.628      919718.895 6   1060570.165 5
 94  3 22 17 43 30.0000000  0  7 19 29 22 28 18 27 14
  22166360.128     8823441.416 7   -476554.838 6
  20752881.409    -2222506.203 8    121239.625 9
  22786778.132     1151384.739 6    849878.865 6
  24313318.120     -724144.988 5   -187688.470 2
  20864022.808    18134504.249 9   -368450.784 9
  24532085.641     -592476.914 4   -311886.847 2
  22765671.124     1028980.525 6   1145708.985 5
 94  3 22 17 44  0.0000000  0  7 19 29 22 28 18 27 14
  22157355.982     8776125.717 7   -513424.205 6
  20756093.565    -2205628.979 8    134390.690 9
  22803965.353     1241726.592 6    920275.068 6
  24302844.031     -779179.699 5   -230572.558 2
  20857087.079    18098061.532 9   -396847.703 9
  24518034.218     -666251.610 4   -369373.570 2
  22786517.912     1138522.434 6   1231066.227 5
 94  3 22 17 44 30.0000000  0  7 19 29 22 28 18 27 14
  22148404.359     8729093.364 7   -550072.760 6
  20759388.195    -2188313.010 8    147883.650 9
  22821237.236     1332487.436 6    990997.762 6
  24292434.667     -833883.824 5   -273199.018 2
  20850223.361    18061993.034 9   -424952.997 9
  24504026.236     -739890.197 4   -426754.214 2
  22807418.093     1248367.454 6   1316659.617 5
 94  3 22 17 45  0.0000000  0  7 19 29 22 28 18 27 14
  22139502.022     8682311.476 7   -586526.151 6
  20762759.151    -2170594.984 8    161689.902 9
  22838583.857     1423645.596 6   1062030.042 6
  24282077.378     -888297.890 5   -315599.455 3
  20843428.745    18026277.421 9   -452783.325 9
  24490030.515     -813412.427 4   -484044.172 2
  22828373.496     1358487.781 6   1402467.593 5
 94  3 22 17 45 30.0000000  0  7 19 29 22 28 18 27 14
  22130649.150     8635762.663 7   -622797.933 7
  20766202.567    -2152496.290 8    175792.752 9
  22856000.030     1515174.015 6   1133350.836 6
  24271783.524     -942431.718 5   -357781.511 3
  20836696.545    17990909.598 9   -480342.661 9
  24476067.411     -886820.498 5   -541245.201 2
  22849378.604     1468877.754 6   1488485.604 5
 94  3 22 17 46  0.0000000  0  7 19 29 22 28 18 27 14
  22121833.393     8589434.821 7   -658897.526 7
  20769719.043    -2134025.081 8    190185.923 9
  22873493.850     1607077.891 6   1204964.221 6
  24261528.763     -996282.740 5   -399743.223 3
  20830029.611    17955888.321 9   -507631.950 9
  24462120.316     -960103.367 4   -598348.667 2
  22870436.806     1579531.303 6   1574709.048 5
 94  3 22 17 46 30.0000000  0  7 19 29 22 28 18 27 14
  22113050.793     8543313.070 7   -694836.517 7
  20773300.303    -2115198.842 8    204855.704 9
  22891054.283     1699361.885 6   1276873.784 6
  24251340.766    -1049842.879 5   -441478.280 3
  20823435.825    17921216.570 9   -534648.889 9
  24448203.891    -1033244.404 4   -655341.583 2
  22891542.375     1690450.396 6   1661139.412 5
 94  3 22 17 47  0.0000000  0  7 19 29 22 28 18 27 14
  22104319.848     8497402.812 7   -730610.712 7
  20776950.696    -2096015.344 8    219803.881 9
  22908685.047     1792011.781 6   1349068.465 6
  24241198.757    -1103106.749 5   -482982.482 3
  20816901.699    17886886.464 9   -561399.595 9
  24434317.504    -1106241.124 5   -712222.083 2
  22912695.911     1801632.955 6   1747775.039 5
 94  3 22 17 47 30.0000000  0  7 19 29 22 28 18 27 14
  22095625.297     8451714.787 7   -766211.739 7
  20780673.339    -2076460.670 8    235041.281 9
  22926380.537     1885011.119 6   1421535.466 6
  24231126.360    -1156059.018 5   -524243.866 3
  20810436.015    17852898.488 9   -587883.723 9
  24420444.338    -1179105.975 5   -768999.819 2
  22933903.109     1913065.923 6   1834605.834 5
 94  3 22 17 48  0.0000000  0  7 19 29 22 28 18 27 14
  22086973.077     8406271.745 7   -801621.875 7
  20784469.191    -2056515.587 8    250582.889 9
  22944142.970     1978358.513 6   1494273.638 6
  24221108.256    -1208682.437 5   -565249.051 3
  20804030.949    17819252.509 9   -614101.364 9
  24406606.068    -1251839.319 5   -825675.092 2
  22955154.078     2024737.261 6   1921622.326 5
 94  3 22 17 48 30.0000000  0  7 19 29 22 28 18 27 14
  22078379.106     8361090.587 7   -836827.933 7
  20788338.523    -2036174.771 8    266432.876 9
  22961969.769     2072032.046 6   1567265.959 6
  24211147.232    -1260993.333 5   -606010.676 3
  20797691.388    17785942.286 9   -640057.370 9
  24392791.512    -1324454.765 5   -882258.498 2
  22976443.899     2136633.609 6   2008814.188 5
 94  3 22 17 49  0.0000000  0  7 19 29 22 28 18 27 14
  22069834.332     8316176.323 7   -871826.014 7
  20792289.218    -2015430.637 8    282597.115 9
  22979854.158     2166022.260 6   1640505.061 6
  24201254.860    -1313008.021 5   -646541.517 3
  20791417.991    17752962.040 9   -665756.245 9
  24378995.123    -1396969.638 5   -938763.557 2
  22997781.957     2248736.123 6   2096166.665 5
 94  3 22 17 49 30.0000000  0  7 19 29 22 28 18 27 14
  22061333.477     8271523.323 7   -906620.521 7
  20796311.023    -1994287.766 8    299072.065 9
  22997802.193     2260336.308 6   1713996.479 6
  24191428.083    -1364712.173 5   -686830.364 3
  20785204.372    17720317.109 9   -691193.850 9
  24365202.092    -1469381.155 5   -995188.082 2
  23019151.973     2361043.291 6   2183678.649 5
 94  3 22 17 50  0.0000000  0  7 19 29 22 28 18 27 14
  22052884.366     8227118.504 7   -941221.623 7
  20800403.820    -1972770.576 8    315838.719 9
  23015811.056     2354967.987 6   1787735.424 6
  24181637.191    -1416109.944 5   -726880.490 3
  20779057.638    17688004.159 9   -716372.756 9
  24351449.023    -1541687.512 5  -1051530.661 2
  23040565.488     2473553.467 6   2271348.815 6
 94  3 22 17 50 30.0000000  0  8 19 29 31 22 28 18 27 14
  22044476.267     8182943.872 7   -975643.398 7
  20804566.378    -1950892.092 8    332886.874 9
  24521790.348       76798.23315   -179719.221
  23033877.508     2449924.512 6   1861727.475 6
  24171912.193    -1467190.748 5   -766683.652 3
  20772974.159    17656035.310 9   -741283.536 9
  24337714.601    -1613898.493 5  -1107798.907 2
  23062013.270     2586270.812 6   2359180.374 5
 94  3 22 17 51  0.0000000  0  8 19 29 31 22 28 18 27 14
  22036113.976     8139001.595 7  -1009884.101 7
  20808802.776    -1928637.573 8    350228.041 9
  24506693.399       -2579.836 5   -241572.135 1
  23052011.954     2545219.064 6   1935982.902 6
  24162260.555    -1517922.670 5   -806214.949 3
  20766958.764    17624429.159 9   -765911.712 9
  24323992.860    -1685991.722 5  -1163975.446 2
  23083502.334     2699213.538 6   2447187.588 6
 94  3 22 17 51 30.0000000  0  8 19 29 31 22 28 18 27 14
  22027795.844     8095285.360 7  -1043948.660 7
  20813109.324    -1906007.479 8    367861.865 9
  24491596.271      -81898.668 5   -303378.911 1
  23070210.945     2640838.180 6   2010491.245 6
  24152672.593    -1568290.298 5   -845462.378 3
  20761014.509    17593189.391 9   -790254.371 9
  24310298.670    -1757953.446 5  -1220049.431 2
  23105037.086     2812386.504 6   2535374.207 5
 94  3 22 17 52  0.0000000  0  8 19 29 31 22 28 18 27 14
  22019521.782     8051802.247 7  -1077831.573 7
  20817489.982    -1882984.166 8    385802.091 9
  24476512.363     -161151.906 5   -365134.574 1
  23088469.505     2736785.357 6   2085255.208 6
  24143159.249    -1618301.504 5   -884432.073 3
  20755141.694    17562327.100 9   -814302.918 9
  24296633.621    -1829782.115 5  -1276019.802 2
  23126620.014     2925796.459 6   2623745.493 5
 94  3 22 17 52 30.0000000  0  8 19 29 31 22 28 18 27 14
  22011293.109     8008545.589 7  -1111538.010 7
  20821950.654    -1859552.863 8    404060.247 9
  24461444.854     -240347.320 5   -426845.176 1
  23106788.593     2833053.146 6   2160269.030 6
  24133710.780    -1667978.544 5   -923141.396 3
  20749335.194    17531825.615 9   -838070.283 9
  24282983.860    -1901487.203 5  -1331893.789 2
  23148245.153     3039434.661 6   2712294.624 5
 94  3 22 17 53  0.0000000  0  8 19 29 31 22 28 18 27 14
  22003101.730     7965517.731 7  -1145066.187 7
  20826487.323    -1835701.522 8    422645.689 9
  24446381.452     -319493.181 5   -488517.179 2
  23125165.211     2929641.540 6   2235532.629 6
  24124317.892    -1717339.194 5   -961604.166 3
  20743599.535    17501676.052 9   -861563.439 9
  24269369.925    -1973054.235 5  -1387660.211 2
  23169909.895     3153293.288 6   2801015.502 5
 94  3 22 17 53 30.0000000  0  8 19 29 31 22 28 18 27 14
  21994959.127     7922715.916 7  -1178418.245 7
  20831104.816    -1811438.931 8    441551.578 9
  24431326.984     -398583.021 5   -550145.536 2
  23143604.366     3026552.294 6   2311047.439 6
  24114980.406    -1766396.293 5   -999830.429 3
  20737926.652    17471870.426 9   -884788.603 9
  24255774.277    -2044496.636 5  -1443329.540 2
  23191622.154     3267370.607 6   2889906.803 5
 94  3 22 17 54  0.0000000  0  8 19 29 31 22 28 18 27 14
  21986855.377     7880147.509 7  -1211588.405 7
  20835801.785    -1786759.684 8    460782.142 9
  24416302.765     -477599.302 5   -611716.544 2
  23162111.304     3123788.939 6   2386816.220 6
  24105700.931    -1815165.809 5  -1037832.587 3
  20732319.964    17442402.892 9   -907750.304 9
  24242193.409    -2115833.427 5  -1498916.569 2
  23213369.639     3381650.248 6   2978955.752 5
 94  3 22 17 54 30.0000000  0  8 19 29 31 22 28 18 27 14
  21978800.643     7837801.486 7  -1244585.280 7
  20840577.748    -1761665.157 8    480336.300 9
  24401276.448     -556547.901 5   -673234.859 2
  23180678.590     3221341.328 6   2462830.979 5
  24096474.248    -1863634.099 5  -1075600.025 3
  20726775.752    17413272.908 9   -930448.976 9
  24228650.944    -2187054.866 5  -1554413.688 2
  23235149.471     3496117.612 6   3068150.997 5
 94  3 22 17 55  0.0000000  0  8 19 29 31 22 28 18 27 14
  21970782.424     7795674.309 7  -1277411.632 7
  20845426.861    -1736167.398 8    500204.666 9
  24386258.764     -635435.624 5   -734705.795 2
  23199298.190     3319200.700 6   2539084.982 5
  24087313.310    -1911784.598 5  -1113119.838 3
  20721298.663    17384484.706 9   -952881.336 9
  24215117.413    -2258156.501 5  -1609817.470 2
  23256968.216     3610756.317 6   3157479.720 5
 94  3 22 17 55 30.0000000  0  8 19 29 31 22 28 18 27 14
  21962810.253     7753780.591 7  -1310056.057 7
  20850355.000    -1710267.533 8    520386.348 9
  24371259.488     -714249.685 5   -796119.255 2
  23217975.920     3417347.851 6   2615563.224 5
  24078214.489    -1959598.186 5  -1150377.133 3
  20715888.819    17356053.108 9   -975035.823 9
  24201605.167    -2329140.309 5  -1665129.448 2
  23278810.555     3725561.500 6   3246938.221 5
 94  3 22 17 56  0.0000000  0  8 19 29 31 22 28 18 27 14
  21954884.250     7712118.562 7  -1342519.974 7
  20855363.722    -1683965.103 8    540881.732 9
  24356277.240     -792995.345 5   -857479.415 2
  23236702.695     3515769.076 6   2692255.002 5
  24069184.590    -2007058.851 5  -1187359.445 3
  20710545.618    17327984.574 9   -996907.406 9
  24188111.509    -2400001.418 5  -1720345.791 2
  23300688.689     3840517.134 6   3336513.907 5
 94  3 22 17 56 30.0000000  0  8 19 29 31 22 28 18 27 14
  21946999.109     7670680.764 8  -1374809.149 7
  20860442.266    -1657275.714 8    561678.625 9
  24341304.885     -871670.438 5   -918784.644 2
  23255485.532     3614457.680 6   2769155.152 5
  24060225.562    -2054154.698 5  -1224057.450 3
  20705272.478    17300279.655 9  -1018495.655 9
  24174660.211    -2470735.810 5  -1775463.391 2
  23322595.753     3955628.740 6   3426211.141 5
 94  3 22 17 57  0.0000000  0  8 19 29 31 22 28 18 27 14
  21939160.076     7629485.751 8  -1406909.131 7
  20865588.684    -1630213.799 8    582765.828 9
  24326349.439     -950258.265 5   -980021.883 2
  23274312.289     3713410.763 6   2846261.379 5
  24051327.243    -2100893.794 5  -1260477.493 3
  20700072.668    17272942.845 9  -1039797.057 9
  24161226.001    -2541360.730 5  -1830495.705 2
  23344529.409     4070897.306 6   3516030.681 5
 94  3 22 17 57 30.0000000  0  8 19 29 31 22 28 18 27 14
  21931367.690     7588535.263 8  -1438818.595 7
  20870812.897    -1602785.657 8    604138.388 9
  24311413.509    -1028746.580 5  -1041181.505 2
  23293194.747     3812619.454 6   2923566.785 5
  24042500.963    -2147284.512 5  -1296626.052 3
  20694940.761    17245983.036 9  -1060804.694 9
  24147806.062    -2611887.942 5  -1885451.870 2
  23366497.420     4186333.499 6   3605980.813 5
 94  3 22 17 58  0.0000000  0  8 19 29 31 22 28 18 27 14
  21923616.526     7547817.674 8  -1470546.569 7
  20876101.835    -1574989.913 8    625797.385 9
  24296494.247    -1107129.014 5  -1102258.668 2
  23312125.471     3912104.931 6   3001087.897 5
  24033739.948    -2193332.118 5  -1332507.279 3
  20689882.812    17219395.801 9  -1081522.015 9
  24134388.491    -2682309.831 5  -1940326.010 2
  23388499.069     4301949.407 6   3696071.019 5
 94  3 22 17 58 30.0000000  0  8 19 29 31 22 28 18 27 14
  21915913.179     7507329.166 8  -1502096.040 7
  20881458.467    -1546830.777 8    647739.547 9
  24281596.511    -1185412.850 5  -1163259.003 2
  23331103.203     4011872.954 6   3078829.125 5
  24025040.241    -2239050.816 5  -1368132.241 3
  20684896.214    17193185.285 9  -1101945.803 9
  24121008.303    -2752625.669 5  -1995117.495 2
  23410531.806     4417745.516 6   3786301.617 5
 94  3 22 17 59  0.0000000  0  8 19 29 31 22 28 18 27 14
  21908258.069     7467075.486 8  -1533462.538 7
  20886889.148    -1518281.346 8    669985.839 9
  24266722.578    -1263597.058 5  -1224181.690 2
  23350154.115     4111938.709 6   3156802.337 5
  24016405.289    -2284416.959 5  -1403482.455 3
  20679978.269    17167359.841 9  -1122069.532 9
  24107662.982    -2822816.966 5  -2049811.944 2
  23432604.985     4533731.889 6   3876680.479 5
 94  3 22 17 59 30.0000000  0  8 19 29 31 22 28 18 27 14
  21900635.845     7427045.205 7  -1564654.923 7
  20892401.461    -1489329.165 8    692545.969 9
  24251871.519    -1341681.819 5  -1285026.891 2
  23369258.689     4212321.486 6   3235022.641 5
  24007848.163    -2329399.152 5  -1438533.473 3
  20675138.779    17141910.472 9  -1141900.205 9
  24094318.740    -2892862.936 5  -2104393.161 3
  23454712.550     4649926.392 6   3967221.524 5
 94  3 22 18  0  0.0010000  0  8 19 29 31 22 28 18 27 14
  21893058.231     7387212.817 8  -1595693.114 7
  20897984.526    -1459976.513 8    715418.141 9
  24237018.331    -1419677.317 5  -1345802.524 2
  23388418.125     4313026.214 6   3313493.773 5
  23999356.361    -2373986.691 5  -1473276.986 3
  20670363.955    17116824.940 9  -1161447.379 9
  24081031.938    -2962771.175 5  -2158867.069 3
  23476866.074     4766318.341 6   4057916.425 5
 94  3 22 18  0 30.0010000  0  8 19 29 31 22 28 18 27 14
  21885513.025     7347579.428 8  -1626576.242 7
  20903649.075    -1430226.388 8    738600.047 9
  24222194.524    -1497580.539 5  -1406506.251 2
  23407635.751     4414017.559 6   3392188.232 5
  23990959.265    -2418164.181 5  -1507700.992 3
  20665659.612    17092100.030 9  -1180713.547 9
  24067751.852    -3032550.199 5  -2213240.309 3
  23499043.131     4882893.137 6   4148753.795 5
 94  3 22 18  1  0.0010000  0  8 19 29 31 22 28 18 27 14
  21878007.421     7308134.088 7  -1657312.843 7
  20909386.173    -1400073.282 8    762095.959 9
  24207384.357    -1575377.938 5  -1467127.496 2
  23426901.823     4515270.336 6   3471086.432 5
  23982621.587    -2461927.018 5  -1541801.874 3
  20661020.653    17067716.527 9  -1199713.676 9
  24054493.561    -3102216.376 5  -2267525.598 3
  23521261.290     4999645.929 6   4239729.865 5
 94  3 22 18  1 30.0010000  0  8 19 29 31 22 28 18 27 14
  21870536.772     7268885.626 7  -1687896.034 7
  20915199.089    -1369524.056 8    785900.529 9
  24192606.057    -1653058.770 5  -1527657.876 2
  23446216.132     4616770.304 6   3550177.231 5
  23974371.538    -2505294.247 5  -1575594.454 3
  20656447.679    17043692.690 9  -1218433.539 9
  24041258.053    -3171776.992 5  -2321728.618 3
  23543509.518     5116555.210 6   4330827.881 4
 94  3 22 18  2  0.0010000  0  8 19 29 31 22 28 18 27 14
  21863107.915     7229845.430 7  -1718316.933 7
  20921092.469    -1338567.418 8    810022.568 9
  24177848.654    -1730618.661 5  -1588094.048 2
  23465578.468     4718495.627 6   3629443.628 5
  23966193.889    -2548294.817 5  -1609101.352 3
  20651948.603    17020045.229 9  -1236860.144 9
  24028033.549    -3241248.362 5  -2375862.059 3
  23565782.628     5233585.794 6   4422020.389 4
 94  3 22 18  2 30.0010000  0  8 19 29 31 22 28 18 27 14
  21855722.438     7191042.474 7  -1748552.984 7
  20927059.478    -1307192.363 8    834470.640 9
  24163108.608    -1808053.344 5  -1648432.620 2
  23484974.381     4820441.290 6   3708881.704 5
  23958074.580    -2590947.170 5  -1642336.890 3
  20647520.639    16996776.656 9  -1254991.508 9
  24014824.453    -3310634.901 5  -2429929.459 3
  23588073.696     5350728.868 6   4513300.515 4
 94  3 22 18  3  0.0010000  0  8 19 29 31 22 28 18 27 14
  21848386.427     7152480.759 8  -1778601.038 7
  20933110.879    -1275399.146 8    859244.553 9
  24148400.940    -1885358.717 5  -1708670.428 3
  23504419.789     4922627.962 6   3788507.581 5
  23950025.932    -2633257.337 5  -1675305.788 3
  20643164.804    16973900.128 9  -1272817.374 9
  24001636.433    -3379932.907 5  -2483927.830 3
  23610393.515     5467970.058 6   4604657.184 4
 94  3 22 18  3 30.0010000  0  8 19 29 31 22 28 18 27 14
  21841097.753     7114172.303 8  -1808451.737 7
  20939235.189    -1243205.878 8    884330.200 9
  24133716.266    -1962536.258 5  -1768808.617 3
  23523915.832     5025074.528 6   3868335.998 5
  23942036.853    -2675223.282 5  -1708006.464 3
  20638892.762    16951435.297 9  -1290322.438 9
  23988465.471    -3449144.166 5  -2537858.621 3
  23632715.731     5585311.832 6   4696092.185 4
 94  3 22 18  4  0.0010000  0  8 19 29 31 22 28 18 27 14
  21833854.497     7076109.084 8  -1838111.360 7
  20945435.227    -1210626.058 8    909717.058 9
  24119058.333    -2039586.927 5  -1828847.949 3
  23543461.191     5127783.688 6   3948369.013 5
  23934117.655    -2716836.579 5  -1740432.339 4
  20634692.969    16929370.254 9  -1307515.982 9
  23975326.977    -3518266.867 5  -2591720.416 3
  23655067.837     5702778.018 6   4787624.109 4
 94  3 22 18  4 30.0010000  0  8 19 29 31 22 28 18 27 14
  21826653.902     7038271.694 8  -1867595.021 7
  20951705.806    -1177674.026 8    935393.946 9
  24104412.393    -2116517.370 5  -1888793.620 3
  23563059.104     5230753.145 6   4028604.845 5
  23926266.960    -2758084.332 5  -1772573.358 4
  20630567.615    16907690.873 9  -1324409.004 9
  23962182.007    -3587290.147 5  -2645504.728 3
  23677445.366     5820382.502 6   4879263.807 4
 94  3 22 18  5  0.0010000  0  8 19 29 31 22 28 18 27 14
  21819491.770     7000641.544 8  -1896917.166 7
  20958045.847    -1144364.850 8    961349.129 9
  24089805.874    -2193333.065 5  -1948649.849 3
  23582700.636     5333973.606 6   4109036.310 5
  23918493.821    -2798949.141 5  -1804415.962 4
  20626513.732    16886399.016 9  -1341000.062 9
  23949064.917    -3656202.414 5  -2699202.524 3
  23699853.293     5938122.173 6   4971008.939 4
 94  3 22 18  5 30.0010000  0  8 19 29 31 22 28 18 27 14
  21812374.667     6963238.145 8  -1926062.668 7
  20964454.840    -1110677.748 8    987598.803 9
  24075201.785    -2270018.368 5  -2008404.479 3
  23602385.009     5437445.707 6   4189663.789 5
  23910792.243    -2839419.363 5  -1835951.113 4
  20622541.811    16865506.631 9  -1357279.836 9
  23935984.523    -3724985.529 5  -2752799.703 3
  23722285.923     6056015.393 6   5062873.553 4
 94  3 22 18  6  0.0010000  0  8 19 29 31 22 28 18 27 14
  21805299.715     6926052.251 8  -1955038.673 7
  20970944.297    -1076590.428 8   1014160.322 9
  24060641.794    -2346576.544 5  -2068060.061 3
  23622124.064     5541153.025 6   4270474.615 5
  23903161.805    -2879496.800 5  -1867180.158 4
  20618634.167    16844992.549 9  -1373264.846 9
  23922930.240    -3793634.328 5  -2806292.217 3
  23744747.543     6174051.544 6   5154849.624 4
 94  3 22 18  6 30.0010000  0  8 19 29 31 22 28 18 27 14
  21798270.212     6889099.316 8  -1983833.160 7
  20977509.812    -1042074.419 8   1041055.906 9
  24046101.770    -2422982.277 5  -2127596.875 3
  23641904.700     5645096.776 6   4351469.631 4
  23895619.927    -2919167.637 5  -1898092.376 4
  20614807.016    16824869.866 9  -1388944.865 9
  23909872.330    -3862138.666 5  -2859672.152 3
  23767235.575     6292226.624 6   5246933.926 4
 94  3 22 18  7  0.0010000  0  8 19 29 31 22 28 18 27 14
  21791282.169     6852390.690 7  -2012437.258 7
  20984160.408    -1007127.959 8   1068286.902 9
  24031588.907    -2499233.320 5  -2187013.116 3
  23661728.566     5749275.248 6   4432647.576 4
  23888137.527    -2958436.449 5  -1928691.351 4
  20611053.315    16805143.975 9  -1404315.676 9
  23896879.595    -3930503.897 5  -2912943.670 3
  23789745.702     6410532.169 6   5339119.925 4
 94  3 22 18  7 30.0010000  0  8 19 29 31 22 28 18 27 14
  21784342.753     6815917.799 8  -2040857.679 7
  20990893.717     -971746.530 8   1095856.828 9
  24017102.366    -2575322.452 5  -2246303.223 3
  23681595.962     5853679.828 6   4514001.695 4
  23880742.126    -2997309.664 5  -1958982.042 4
  20607372.523    16785796.924 9  -1419391.300 9
  23883873.428    -3998743.802 5  -2966117.555 3
  23812286.047     6528966.555 6   5431406.265 4
 94  3 22 18  8  0.0010000  0  8 19 29 31 22 28 18 27 14
  21777442.071     6779665.685 8  -2069106.076 7
  20997710.278     -935933.611 8   1123762.980 9
  24002661.423    -2651238.502 5  -2305458.488 3
  23701506.259     5958304.609 6   4595527.373 4
  23873426.920    -3035772.776 5  -1988953.181 4
  20603760.383    16766826.358 9  -1434173.566 9
  23870939.872    -4066855.232 5  -3019191.350 3
  23834844.530     6647526.224 6   5523790.275 4
 94  3 22 18  8 30.0010000  0  8 19 29 31 22 28 18 27 14
  21770582.220     6743629.293 7  -2097186.359 7
  21004602.266     -899703.437 8   1151994.268 9
  23988249.890    -2726980.501 5  -2364478.093 3
  23721455.108     6063150.854 6   4677225.641 4
  23866184.744    -3073824.856 5  -2018604.040 4
  20600228.948    16748249.713 9  -1448648.864 9
  23857993.395    -4134841.507 5  -3072167.579 3
  23857432.723     6766200.816 6   5616263.837 4
 94  3 22 18  9  0.0010000  0  8 19 29 31 22 28 18 27 14
  21763768.926     6707796.454 7  -2125108.044 7
  21011575.109     -863065.754 8   1180543.103 9
  23973865.069    -2802564.735 5  -2423374.768 3
  23741452.225     6168210.695 6   4759090.363 4
  23859022.672    -3111456.547 5  -2047927.332 4
  20596762.448    16730062.124 9  -1462821.013 9
  23845066.674    -4202705.673 5  -3125048.670 3
  23880031.288     6884970.519 6   5708811.469 4
 94  3 22 18  9 30.0010000  0  8 19 29 31 22 28 18 27 14
  21756984.143     6672162.975 7  -2152874.399 7
  21018626.258     -826016.734 8   1209412.435 9
  23959513.734    -2877978.532 5  -2482138.645 3
  23761484.597     6273486.394 6   4841123.257 4
  23851942.774    -3148656.548 5  -2076914.283 4
  20593381.928    16712277.062 9  -1476679.505 9
  23832187.410    -4270445.297 5  -3177832.721 3
  23902650.809     7003828.113 6   5801427.633 4
 94  3 22 18 10  0.0010000  0  8 19 29 31 22 28 18 27 14
  21750241.901     6636720.253 7  -2180492.090 7
  21025750.046     -788569.025 8   1238592.458 9
  23945197.085    -2953234.791 5  -2540779.696 3
  23781558.250     6378980.925 6   4923326.676 4
  23844939.112    -3185445.508 5  -2105580.895 4
  20590079.505    16694905.649 9  -1490215.664 9
  23819313.243    -4338072.371 5  -3230529.112 3
  23925280.973     7122750.244 6   5894094.069 4
 94  3 22 18 10 30.0010000  0  8 19 29 31 22 28 18 27 14
  21743532.875     6601478.948 7  -2207952.822 7
  21032956.068     -750716.411 8   1268087.980 9
  23930904.000    -3028336.694 5  -2599300.512 3
  23801673.484     6484699.777 6   5005704.881 4
  23838028.386    -3221822.249 5  -2133926.346 4
  20586850.500    16677954.117 9  -1503424.650 9
  23806458.652    -4405587.686 5  -3283138.373 3
  23947925.046     7241740.664 5   5986813.682 4
 94  3 22 18 11  0.0010000  0  8 19 29 31 22 28 18 27 14
  21736867.590     6566442.383 8  -2235254.044 8
  21040235.478     -712452.973 8   1297903.630 9
  23916634.538    -3103262.593 5  -2657684.179 3
  23821836.056     6590639.711 6   5088255.387 4
  23831178.129    -3257780.792 5  -2161945.920 4
  20583704.448    16661421.759 9  -1516307.004 9
  23793646.811    -4472986.009 5  -3335656.473 3
  23970583.960     7360813.786 5   6079597.813 4
 94  3 22 18 11 30.0010000  0  8 19 29 31 22 28 18 27 14
  21730241.397     6531628.956 8  -2262381.376 8
  21047596.552     -673772.718 8   1328044.070 9
  23902424.436    -3177991.381 5  -2715914.262 3
  23842038.410     6696815.052 6   5170989.321 4
  23824411.183    -3293330.490 5  -2189646.916 4
  20580638.800    16645321.761 9  -1528852.450 9
  23780836.769    -4540268.424 5  -3388084.272 4
  23993261.880     7479991.391 5   6172463.309 4
 94  3 22 18 12  0.0010000  0  8 19 29 31 22 28 18 27 14
  21723661.462     6497052.607 8  -2289323.971 8
  21055036.771     -634667.885 8   1358515.354 9
  23888243.413    -3252524.679 5  -2773991.985 3
  23862289.361     6803216.879 6   5253899.739 4
  23817730.129    -3328468.737 6  -2217027.332 4
  20577659.733    16629649.879 9  -1541064.304 9
  23768064.771    -4607436.016 5  -3440422.600 4
  24015964.953     7599289.154 5   6265422.433 4
 94  3 22 18 12 30.0010000  0  8 19 29 31 22 28 18 27 14
  21717128.115     6462722.003 8  -2316075.079 8
  21062556.556     -595154.461 8   1389305.022 9
  23874087.603    -3326867.067 5  -2831920.966 3
  23882569.841     6909810.655 6   5336959.718 4
  23811123.842    -3363188.100 5  -2244081.320 4
  20574753.305    16614387.506 9  -1552957.056 9
  23755291.124    -4674494.833 5  -3492676.192 4
  24038685.294     7718709.384 5   6358476.988 4
 94  3 22 18 13  0.0010000  0  8 19 29 31 22 28 18 27 14
  21710641.745     6428635.236 8  -2342636.174 8
  21070150.838     -555254.511 8   1420395.869 9
  23859984.766    -3401032.811 5  -2889712.277 3
  23902890.163     7016592.139 6   5420165.984 4
  23804597.030    -3397491.220 6  -2270810.994 4
  20571929.110    16599528.614 9  -1564535.425 9
  23742555.551    -4741454.960 5  -3544852.839 4
  24061429.919     7838232.156 5   6451611.429 3
 94  3 22 18 13 30.0010000  0  8 19 29 31 22 28 18 27 14
  21704201.454     6394783.936 8  -2369013.801 8
  21077809.006     -514990.441 8   1451770.431 9
  23845890.354    -3475057.808 5  -2947393.981 3
  23923245.951     7123549.984 6   5503509.634 4
  23798147.176    -3431393.561 5  -2297228.364 4
  20569171.679    16585049.554 9  -1575817.809 9
  23729831.849    -4808337.869 5  -3596969.341 4
  24084193.790     7957828.433 5   6544803.190 3
 94  3 22 18 14  0.0010000  0  8 19 29 31 22 28 18 27 14
  21697805.262     6361161.352 8  -2395213.206 8
  21085543.862     -474358.020 8   1483432.029 9
  23831830.417    -3548937.536 5  -3004962.423 3
  23943630.849     7230683.262 6   5586990.039 4
  23791766.213    -3464867.357 6  -2323311.871 4
  20566487.367    16570954.739 9  -1586800.788 9
  23717113.244    -4875129.109 5  -3649014.414 4
  24106964.646     8077497.922 5   6638051.969 3
 94  3 22 18 14 30.0010000  0  8 19 29 31 22 28 18 27 14
  21691448.583     6327760.992 8  -2421239.444 8
  21093341.733     -433368.872 8   1515371.603 9
  23817810.293    -3622649.646 5  -3062400.304 3
  23964054.510     7338002.590 6   5670615.398 4
  23785484.362    -3497897.139 5  -2349049.376 4
  20563882.980    16557250.702 9  -1597479.267 9
  23704419.522    -4941814.878 5  -3700977.311 4
  24129746.594     8197230.460 5   6731349.878 3
 94  3 22 18 15  0.0010000  0  8 19 29 31 22 28 18 27 14
  21685128.958     6294557.006 8  -2447112.646 9
  21101214.733     -392006.936 8   1547601.646 9
  23803811.214    -3696191.978 5  -3119705.918 3
  23984513.397     7445527.715 6   5754401.103 4
  23779283.874    -3530488.351 5  -2374445.141 4
  20561348.625    16543939.913 9  -1607851.305 9
  23691758.747    -5008391.702 5  -3752855.304 4
  24152543.022     8317008.615 5   6824683.363 3
 94  3 22 18 15 30.0010000  0  8 19 29 31 22 28 18 27 14
  21678847.256     6261548.018 8  -2472833.930 9
  21109160.612     -350241.361 8   1580146.221 9
  23789863.400    -3769526.842 5  -3176849.860 3
  24005019.950     7553254.567 6   5838344.013 4
  23773168.198    -3562634.922 5  -2399494.429 4
  20558893.384    16531033.871 9  -1617907.974 9
  23679104.627    -5074845.566 5  -3804637.493 4
  24175340.860     8436845.939 5   6918062.909 3
 94  3 22 18 16  0.0010000  0  8 19 29 31 22 28 18 27 14
  21672607.346     6228740.156 8  -2498398.473 9
  21117189.954     -308058.169 8   1613016.204 9
  23775945.146    -3842618.425 5  -3233804.216 3
  24025551.387     7661182.131 6   5922443.338 4
  23767136.764    -3594315.837 5  -2424180.905 4
  20556517.019    16518558.285 9  -1627629.219 9
  23666505.849    -5141153.217 6  -3856305.735 4
  24198164.539     8556752.610 5   7011496.494 3
 94  3 22 18 16 30.0010000  0  8 19 29 31 22 28 18 27 14
  21666401.942     6196130.502 8  -2523808.577 9
  21125298.980     -265446.041 8   1646220.438 9
  23762089.608    -3915469.172 5  -3290570.914 3
  24046127.672     7769300.955 5   6006691.660 4
  23761195.477    -3625546.226 5  -2448516.281 4
  20554224.626    16506511.571 9  -1637016.260 9
  23653902.574    -5207316.098 5  -3907861.176 4
  24220991.247     8676710.035 5   7104969.676 3
 94  3 22 18 17  0.0010000  0  8 19 29 31 22 28 18 27 14
  21660235.811     6163732.751 8  -2549053.569 9
  21133494.766     -222371.761 8   1679784.802 9
  23748276.430    -3988082.714 5  -3347152.815 3
  24066737.324     7877605.779 6   6091084.975 4
  23755339.691    -3656325.870 5  -2472500.427 4
  20552019.143    16494908.237 9  -1646057.828 9
  23641344.778    -5273329.612 6  -3959300.251 4
  24243829.466     8796729.440 5   7198491.077 3
 94  3 22 18 17 30.0010000  0  8 19 29 31 22 28 18 27 14
  21654112.940     6131564.320 8  -2574119.870 9
  21141776.563     -178848.029 8   1713699.366 9
  23734497.789    -4060450.231 5  -3403543.019 3
  24087381.393     7986071.915 6   6175603.934 4
  23749565.598    -3686649.194 5  -2496129.007 4
  20549893.615    16483744.286 9  -1654757.012 9
  23628806.917    -5339206.315 6  -4010632.700 4
  24266682.255     8916807.595 5   7292058.271 3
 94  3 22 18 18  0.0010000  0  8 19 29 31 22 28 18 27 14
  21648034.677     6099611.613 8  -2599018.085 9
  21150141.732     -134896.625 8   1747947.186 9
  23720763.787    -4132601.271 5  -3459764.566 3
  24108044.798     8094683.922 6   6260236.594 4
  23743882.762    -3716535.067 5  -2519416.733 4
  20547846.392    16473003.451 9  -1663126.491 9
  23616296.668    -5404970.772 6  -4061877.708 4
  24289536.574     9036917.544 5   7385650.214 3
 94  3 22 18 18 30.0010000  0  8 19 29 31 22 28 18 27 14
  21641995.149     6067882.740 8  -2623741.865 9
  21158587.784      -90505.924 8   1782537.310 9
  23707075.713    -4204546.345 5  -3515825.589 3
  24128737.373     8203453.482 5   6344992.037 4
  23738275.414    -3745988.110 6  -2542367.120 4
  20545884.370    16462682.851 9  -1671168.514 9
  23603793.194    -5470629.736 6  -4113040.505 4
  24312403.213     9157067.542 5   7479273.422 3
 94  3 22 18 19  0.0010000  0  8 19 29 31 22 28 18 27 14
  21635999.539     6036379.585 8  -2648289.777 9
  21167115.231      -45698.236 8   1817452.349 9
  23693419.627    -4276276.048 5  -3571718.857 3
  24149470.689     8312378.264 5   6429868.383 4
  23732754.556    -3775004.474 5  -2564977.261 4
  20543998.436    16452777.814 9  -1678886.740 9
  23591316.971    -5536197.111 6  -4164131.946 5
  24335270.903     9277264.430 5   7572933.149 3
 94  3 22 18 19 30.0010000  0  8 19 29 31 22 28 18 27 14
  21630046.141     6005090.922 8  -2672670.538 9
  21175717.026        -493.188 8   1852677.036 9
  23679818.433    -4347782.578 5  -3627438.242 3
  24170232.816     8421474.764 5   6514878.573 4
  23727309.635    -3803573.596 5  -2587238.854 4
  20542194.735    16443288.466 9  -1686281.028
  23578850.162    -5601668.692 6  -4215148.724 5
  24358155.320     9397505.922 5   7666627.622 3
 94  3 22 18 20  0.0010000  0  8 19 29 31 22 28 18 27 14
  21624125.659     5973999.869 8  -2696897.316 9
  21184396.018       45099.986 8   1888204.170 9
  23666247.428    -4419083.270 5  -3682997.195 3
  24191024.952     8530747.392 5   6600025.999 4
  23721964.216    -3831701.758 5  -2609156.865 4
  20540469.129    16434225.216 9  -1693343.316
  23566418.698    -5667035.888 6  -4266084.162 5
  24381040.727     9517790.283 5   7760355.513 3
 94  3 22 18 20 30.0010000  0  8 19 29 31 22 28 18 27 14
  21618249.787     5943097.325 8  -2720977.222 9
  21193143.572       91074.993 8   1924028.802 9
  23652724.779    -4490176.180 6  -3738394.271 3
  24211847.667     8640178.536 5   6685296.961 4
  23716697.432    -3859377.464 6  -2630722.310 4
  20538826.896    16425581.488 9  -1700078.695
  23554003.363    -5732298.855 6  -4316938.385 5
  24403932.459     9638118.192 5   7854117.294 3
 94  3 22 18 21  0.0010000  0  8 19 29 31 22 28 18 27 14
  21612403.384     5912389.559 8  -2744905.347 9
  21201967.483      137437.052 8   1960155.061 9
  23639235.977    -4561041.508 6  -3793614.021 3
  24232701.680     8749757.571 5   6770683.133 4
  23711516.838    -3886582.407 5  -2651920.900 4
  20537260.870    16417369.750 9  -1706477.462
  23541611.292    -5797446.272 6  -4367702.565 5
  24426845.507     9758493.354 5   7947915.891 3
 94  3 22 18 21 30.0010000  0  8 19 29 31 22 28 18 27 14
  21606599.642     5881886.526 8  -2768673.927 9
  21210862.565      184201.429 8   1996594.795 9
  23625797.840    -4631679.571 6  -3848656.630 3
  24253583.484     8859488.706 5   6856187.851 4
  23706437.425    -3913309.975 6  -2672747.513 4
  20535783.223    16409595.443 8  -1712535.370
  23529231.932    -5862463.928 6  -4418365.618 5
  24449763.141     9878904.789 5   8041742.821 3
 94  3 22 18 22  0.0010000  0  8 19 29 31 22 28 18 27 14
  21600840.779     5851611.120 8  -2792265.145 9
  21219843.178      231386.957 8   2033362.719 9
  23612403.833    -4702083.859 6  -3903517.132 3
  24274490.680     8969351.602 5   6941795.222 4
  23701440.664    -3939558.322 6  -2693200.711 4
  20534384.002    16402255.203 8  -1718255.042
  23516889.146    -5927357.596 6  -4468932.084 5
  24472684.973     9999352.227 5   8135597.731 2
 94  3 22 18 22 30.0010000  0  8 19 29 31 22 28 18 27 14
  21595124.247     5821569.391 8  -2815674.267 9
  21228904.465      278994.577 8   2070459.535 9
  23599055.154    -4772235.362 6  -3958180.635 3
  24295419.641     9079346.235 5   7027505.259 3
  23696537.289    -3965332.219 6  -2713284.190 4
  20533067.583    16395337.066 8  -1723645.805
  23504542.464    -5992140.279 6  -4519412.046 5
  24495610.042    10119834.430 5   8229479.750 2
 94  3 22 18 23  0.0010000  0  8 19 29 31 22 28 18 27 14
  21589453.193     5791774.143 8  -2838891.338 9
  21238037.523      327011.193 8   2107875.039 9
  23585749.435    -4842132.311 6  -4012645.752 3
  24316379.781     9189497.562 5   7113337.385 3
  23691714.767    -3990647.671 6  -2733010.459 4
  20531838.374    16388860.579 8  -1728692.422 9
  23492253.102    -6056811.211 6  -4569804.913 5
  24518539.938    10240336.134 5   8323377.003 2
 94  3 22 18 23 30.0010000  0  8 19 29 31 22 28 18 27 14
  21583828.636     5762217.257 8  -2861922.670 9
  21247254.971      375433.582 8   2145606.744 9
  23572500.767    -4911769.186 6  -4066908.217 3
  24337379.133     9299820.899 5   7199303.528 3
  23686990.668    -4015508.483 6  -2752382.485 4
  20530688.910    16382824.218 8  -1733396.086 9
  23479960.082    -6121374.645 6  -4620114.044 5
  24541465.907    10360842.242 5   8417277.651 2
 94  3 22 18 24  0.0010000  0  8 19 29 31 22 28 18 27 14
  21578249.349     5732887.147 8  -2884777.309 9
  21256543.801      424250.317 8   2183645.731 9
  23559287.685    -4981138.976 6  -4120962.549 3
  24358404.208     9410309.130 5   7285398.201 4
  23682346.523    -4039913.217 6  -2771399.075 4
  20529626.026    16377243.630 8  -1737744.610 9
  23467688.527    -6185837.424 6  -4670344.711 5
  24564403.717    10481361.958 5   8511188.909 2
 94  3 22 18 24 30.0010000  0  8 19 29 31 22 28 18 27 14
  21572704.657     5703767.685 8  -2907467.792 9
  21265905.990      473451.541 8   2221984.312 9
  23546145.323    -5050237.650 6  -4174805.581 3
  24379458.272     9520968.639 5   7371626.289 3
  23677787.249    -4063863.938 6  -2790061.916 4
  20528657.546    16372137.436 8  -1741723.463 9
  23455453.517    -6250191.527 6  -4720490.735 5
  24587340.029    10601896.047 5   8605111.378 2
 94  3 22 18 25  0.0010000  0  8 19 29 31 22 28 18 27 14
  21567204.365     5674848.365 8  -2930002.317 9
  21275345.974      523052.148 8   2260634.124 9
  23533047.031    -5119060.361 6  -4228433.539 3
  24400552.959     9631792.271 5   7457982.296 3
  23673320.521    -4087332.627 6  -2808349.157 4
  20527774.388    16367510.068 8  -1745329.202 9
  23443231.968    -6314418.173 6  -4770537.419 5
  24610278.409    10722449.519 5   8699048.920 2
 94  3 22 18 25 30.0010000  0  8 19 29 31 22 28 18 27 14
  21561735.701     5646118.923 8  -2952388.896 9
  21284866.454      573076.257 8   2299613.914 9
  23519998.744    -5187594.963 6  -4281837.022 3
  24421663.624     9742755.433 5   7544447.002 3
  23668951.346    -4110294.654 6  -2826241.597 4
  20526981.017    16363347.705 8  -1748572.602 9
  23431028.017    -6378512.480 6  -4820480.991 5
  24633233.757    10843044.242 5   8793018.595 2
 94  3 22 18 26  0.0010000  0  8 19 29 31 22 28 18 27 14
  21556304.481     5617587.016 8  -2974621.544 9
  21294463.170      623524.865 8   2338924.473 9
  23507024.056    -5255848.514 6  -4335021.466 3
  24442800.251     9853838.003 5   7631004.801 3
  23664685.059    -4132744.330 6  -2843734.761 4
  20526279.023    16359647.932 8  -1751455.542 9
  23418868.225    -6442465.639 6  -4870314.568 5
  24656186.108    10963686.456 5   8887025.294 2
 94  3 22 18 26 30.0010000  0  8 19 29 31 22 28 18 27 14
  21550914.183     5589247.747 8  -2996704.065 9
  21304146.586      674404.182 8   2378570.678 9
  23494076.649    -5323843.164 6  -4388004.182 3
  24463964.610     9965028.746 5   7717646.865 3
  23660503.614    -4154689.891 6  -2860835.123 4
  20525657.223    16356382.488 8  -1754000.049 9
  23406725.131    -6506280.818 6  -4920040.625 5
  24679151.589    11084358.513 5   8981055.228 2
 94  3 22 18 27  0.0010000  0  8 19 29 31 22 28 18 27 14
  21545558.480     5561099.149 8  -3018638.042 9
  21313906.749      725699.476 8   2418540.983 9
  23481188.721    -5391589.252 6  -4440793.178 3
  24485137.512    10076304.540 5   7804355.236 3
  23656422.689    -4176147.064 6  -2877554.938 4
  20525109.682    16353515.614 8  -1756233.979 9
  23394602.634    -6569977.554 6  -4969674.398 5
  24702125.554    11205038.236 5   9075091.171 2
 94  3 22 18 27 30.0010000  0  8 19 29 31 22 28 18 27 14
  21540244.779     5533182.882 8  -3040390.966 9
  21323749.356      777422.997 8   2458844.997 9
  23468344.173    -5459076.635 6  -4493380.590 3
  24506328.012    10187677.283 5   7891139.088 3
  23652430.923    -4197120.622 6  -2893897.905 4
  20524646.233    16351072.566 8  -1758137.659 9
  23382507.537    -6633547.872 6  -5019209.686 5
  24725073.648    11325727.486 5   9169134.521 2
 94  3 22 18 28  0.0010000  0  8 19 29 31 22 28 18 27 14
  21534975.177     5505504.533 8  -3061958.512 9
  21333672.216      829563.248 8   2499473.724 9
  23455546.003    -5526308.673 6  -4545769.045 3
  24527545.554    10299156.570 5   7978005.997 3
  23648526.186    -4217619.279 6  -2909870.839 4
  20524263.188    16349058.738 8  -1759706.888 9
  23370426.321    -6696999.363 6  -5068652.377 5
  24748049.262    11446401.198 5   9263165.749 2
 94  3 22 18 28 30.0010000  0  8 19 29 31 22 28 18 27 14
  21529755.790     5478056.498 8  -3083346.590 9
  21343673.173      882121.201 8   2540427.945 9
  23442803.175    -5593277.211 6  -4597952.167 3
  24548780.123    10410749.727 5   8064961.646 3
  23644715.134    -4237654.090 5  -2925482.339 4
  20523962.526    16347481.976 8  -1760935.528 9
  23358366.719    -6760341.009 6  -5118009.454 5
  24771004.430    11567052.089 5   9357179.213 2
 94  3 22 18 29  0.0010000  0  8 19 29 31 22 28 18 27 14
  21524572.049     5450823.738 8  -3104566.919 9
  21353749.557      935076.218 8   2581691.541 9
  23430114.249    -5659975.058 6  -4649924.381 3
  24570034.149    10522451.632 5   8152002.018 3
  23640990.753    -4257230.762 5  -2940736.839 4
  20523749.914    16346357.106 8  -1761812.070 9
  23346331.341    -6823587.970 6  -5167292.804 5
  24793969.972    11687663.094 5   9451161.548 2
 94  3 22 18 29 30.0010000  0  8 19 29 31 22 28 18 27 14
  21519429.409     5423795.872 8  -3125627.591 9
  21363903.138      988430.574 8   2623266.323 9
  23417468.074    -5726398.207 6  -4701682.560 3
  24591318.425    10634275.706 5   8239137.590 3
  23637356.129    -4276331.318 5  -2955620.356 4
  20523621.572    16345693.477 8  -1762329.195 9
  23334315.779    -6886733.544 6  -5216497.109 5
  24816899.358    11808227.482 5   9545107.579 2
 94  3 22 18 30  0.0010000  0  8 19 29 31 22 28 18 27 14
  21514322.025     5396972.765 8  -3146528.702 9
  21374134.005     1042185.054 8   2665152.883 9
  23404891.751    -5792528.820 6  -4753212.753 4
  24612621.557    10746245.238 5   8326386.522 3
  23633813.302    -4294934.074 5  -2970115.979 4
  20523585.627    16345502.939 8  -1762477.671 9
  23322321.893    -6949764.365 6  -5265612.019 5
  24839843.764    11928759.246 5   9639028.182 2
 94  3 22 18 30 30.0010000  0  8 19 29 31 22 28 18 27 14
  21509260.958     5370355.168 8  -3167269.679 9
  21384441.589     1096341.765 8   2707352.869 9
  23392359.796    -5858350.794 6  -4804502.512 4
  24633957.156    10858358.340 5   8413747.307 3
  23630371.534    -4313037.491 5  -2984222.510 4
  20523640.070    16345797.987 8  -1762247.772 9
  23310355.707    -7012665.484 6  -5314625.856 5
  24862765.176    12049275.227 5   9732936.545 2
 94  3 22 18 31  0.0010000  0  8 19 29 31 22 28 18 27 14
  21504234.458     5343949.623 8  -3187845.418 9
  21394822.263     1150895.830 8   2749862.494 9
  23379900.452    -5923863.139 6  -4855550.950 4
  24655316.080    10970611.993 5   8501217.614 3
  23627021.773    -4330630.378 5  -2997931.216 4
  20523787.957    16346557.227 8  -1761656.157 9
  23298415.692    -7075443.258 6  -5363543.577 5
  24885696.451    12169768.988 5   9826827.507 2
 94  3 22 18 31 30.0010000  0  8 19 29 31 22 28 18 27 14
  21499252.717     5317762.403 8  -3208251.036 9
  21405279.503     1205856.023 8   2792688.556 9
  23367494.080    -5989054.585 6  -4906349.390 4
  24676700.696    11082996.511 5   8588789.906 3
  23623768.425    -4347719.185 5  -3011247.129 4
  20524017.448    16347769.377 8  -1760711.639 9
  23286487.370    -7138101.282 6  -5412367.972 5
  24908626.347    12290243.933 5   9920703.826 2
 94  3 22 18 32  0.0010000  0  8 19 29 31 22 28 18 27 14
  21494308.330     5291794.862 8  -3228485.473 9
  21415814.840     1261229.596 8   2835836.738 9
  23355148.087    -6053919.125 6  -4956893.116 4
  24698110.104    11195496.333 5   8676452.046 2
  23620609.003    -4364319.431 5  -3024182.413 4
  20524337.897    16349450.625 8  -1759401.588 9
  23274589.537    -7200653.366 6  -5461109.823 5
  24931552.136    12410714.239 5  10014576.520 2
 94  3 22 18 32 30.0010000  0  8 19 29 31 22 28 18 27 14
  21489407.173     5266038.145 8  -3248555.632 9
  21426433.699     1317021.378 8   2879310.821 9
  23342868.408    -6118444.952 6  -5007172.901 4
  24719535.402    11308094.954 5   8764191.171 2
  23617540.147    -4380439.146 5  -3036743.191 4
  20524748.222    16351593.098 8  -1757732.121 9
  23262697.100    -7263105.641 6  -5509773.916 5
  24954476.126    12531173.800 5  10108440.859 2
 94  3 22 18 33  0.0010000  0  8 19 29 31 22 28 18 27 14
  21484545.199     5240481.695 8  -3268469.720 9
  21437127.685     1373216.348 8   2923099.063 9
  23330652.885    -6182652.259 6  -5057204.517 4
  24740974.820    11420771.204 5   8851990.830 2
  23614564.857    -4396081.681 5  -3048932.194 4
  20525237.754    16354176.570 8  -1755719.016 9
  23250832.663    -7325477.843 6  -5558375.586 5
  24977383.297    12651595.274 5  10202275.505 2
 94  3 22 18 33 30.0010000  0  8 19 29 31 22 28 18 27 14
  21479717.611     5215113.122 8  -3288237.438 9
  21447894.881     1429801.393 8   2967191.243 9
  23318494.712    -6246541.042 6  -5106987.900 4
  24762435.223    11533511.053 5   8939839.970 2
  23611679.894    -4411248.660 6  -3060750.613 4
  20525814.824    16357214.527 8  -1753351.789 9
  23238985.915    -7387753.431 6  -5606901.973 5
  25000297.904    12771977.080 5  10296079.206 2
 94  3 22 18 34  0.0010000  0  8 19 29 31 22 28 18 27 14
  21474927.227     5189932.969 8  -3307858.329 9
  21458734.957     1486763.289 8   3011577.091 9
  23306397.157    -6310119.089 6  -5156529.213 4
  24783897.515    11646312.969 5   9027737.496 2
  23608884.899    -4425920.828 6  -3072183.484 5
  20526475.866    16360693.420 8  -1750640.977 9
  23227142.044    -7449919.054 6  -5655342.696 5
  25023208.433    12892310.514 5  10389845.175 2
 94  3 22 18 34 30.0010000  0  7 19 29 31 22 28 18 27
  21470169.611     5164946.928 8  -3327327.967 9
  21469642.276     1544090.343 8   3056247.470 9
  23294354.074    -6373390.441 6  -5205831.528 4
  24805388.257    11759179.771 5   9115685.631 2
  23606194.921    -4440087.259 6  -3083222.260 5
  20527221.180    16364594.816 8  -1747600.934 9
  23215346.740    -7511952.594 6  -5703680.462 5
 94  3 22 18 35  0.0010000  0  7 19 29 31 22 28 18 27
  21465454.445     5140165.726 8  -3346637.983 9
  21480623.524     1601794.162 8   3101211.434 9
  23282369.781    -6436364.310 6  -5254902.017 4
  24826875.941    11872114.196 5   9203686.427 2
  23603597.759    -4453732.465 6  -3093854.891 5
  20528046.329    16368928.100 8  -1744224.344 9
  23203572.721    -7573846.516 6  -5751909.458 5
 94  3 22 18 35 30.0010000  0  7 19 29 31 22 28 18 27
  21460781.520     5115594.438 8  -3365784.427 9
  21491682.418     1659906.798 8   3146493.979 9
  23270450.183    -6499028.797 6  -5303731.458 4
  24848377.116    11985134.914 5   9291754.461 2
  23601097.850    -4466846.656 6  -3104073.766 5
  20528952.692    16373701.751 8  -1740504.622 9
  23191816.330    -7635591.894 6  -5800022.687 5
 94  3 22 18 36  0.0010000  0  7 19 29 31 22 28 18 27
  21456144.630     5091231.516 8  -3384768.511 9
  21502821.297     1718453.907 8   3192115.059 9
  23258578.641    -6561384.591 6  -5352320.348 4
  24869897.868    12098237.922 5   9379886.624 2
  23598701.699    -4479442.914 6  -3113889.046 5
  20529943.386    16378916.397 8  -1736441.268 9
  23180085.091    -7697212.003 6  -5848038.300 5
 94  3 22 18 36 30.0010000  0  7 19 29 31 22 28 18 27
  21451547.613     5067071.068 8  -3403594.823 9
  21514052.122     1777448.766 8   3238085.030 9
  23246776.292    -6623434.859 6  -5400671.178 4
  24891438.136    12211422.685 5   9468082.409 2
  23596402.411    -4491531.210 6  -3123308.516 5
  20531025.607    16384600.944 8  -1732011.751 9
  23168383.982    -7758716.573 6  -5895963.895 5
 94  3 22 18 37  0.0010000  0  7 19 29 31 22 28 18 27
  21446984.711     5043105.952 8  -3422268.936 9
  21525364.880     1836909.404 8   3284417.945 9
  23235028.235    -6685161.905 6  -5448770.139 4
  24912986.798    12324693.876 4   9556345.667 2
  23594202.803    -4503101.287 5  -3132324.193 5
  20532202.112    16390769.372 8  -1727205.203 9
  23156706.316    -7820122.152 6  -5943812.373 5
 94  3 22 18 37 30.0010000  0  7 19 29 31 22 28 18 27
  21442460.424     5019325.700 8  -3440799.009 9
  21536764.428     1896813.634 8   3331096.530 9
  23223348.950    -6746536.230 6  -5496594.262 4
  24934570.206    12438053.444 4   9644677.715 2
  23592098.560    -4514154.532 6  -3140937.141 5
  20533470.204    16397421.491 8  -1722021.746 9
  23145033.117    -7881426.772 6  -5991582.150 5
 94  3 22 18 38  0.0010000  0  7 19 29 31 22 28 18 27
  21437968.693     4995725.714 8  -3459188.600 9
  21548240.514     1957122.965 8   3378090.758 9
  23211741.166    -6807545.447 6  -5544133.849 4
  24956142.372    12551488.473 4   9733068.618 2
  23590089.891    -4524690.676 5  -3149147.161 5
  20534827.635    16404564.026 8  -1716456.140 9
  23133393.915    -7942621.086 6  -6039266.015 5
 94  3 22 18 38 30.0010000  0  7 19 29 31 22 28 18 27
  21433511.978     4972307.926 8  -3477436.225 9
  21559786.930     2017800.828 8   3425372.161 9
  23200201.735    -6868184.783 6  -5591385.232 4
  24977752.822    12665002.116 4   9821520.810 2
  23588189.027    -4534691.502 6  -3156940.032 5
  20536280.459    16412202.542 8  -1710504.059 9
  23121772.340    -8003692.271 6  -6086853.908 5
 94  3 22 18 39  0.0010000  0  7 19 29 31 22 28 18 27
  21429092.678     4949069.578 8  -3495544.035 9
  21571400.230     2078828.663 8   3472926.288 9
  23188728.767    -6928449.578 6  -5638344.766 4
  24999354.667    12778581.208 4   9910023.876 2
  23586388.563    -4544160.077 5  -3164318.139 5
  20537819.743    16420306.962 8  -1704188.927 9
  23110164.646    -8064648.056 6  -6134351.891 5
 94  3 22 18 39 30.0010000  0  7 19 29 31 22 28 18 27
  21424705.485     4926028.486 8  -3513498.127 9
  21583079.665     2140199.007 8   3520747.283 9
  23177331.407    -6988355.550 6  -5685024.679 4
  25020986.611    12892206.515 4   9998563.042 2
  23584687.241    -4553108.829 6  -3171291.213 5
  20539451.693    16428875.322 8  -1697512.287 9
  23098588.820    -8125477.379 6  -6181751.321 5
 94  3 22 18 40  0.0010000  0  7 19 29 31 22 28 18 27
  21420364.011     4903198.058 8  -3531288.066 9
  21594827.692     2201935.000 8   3568853.214 9
  23165997.694    -7047930.342 6  -5731446.536 4
  25042615.708    13005872.867 4  10087134.137 2
  23583080.083    -4561549.748 6  -3177868.532 5
  20541173.282    16437921.956 8  -1690462.965 9
  23087040.994    -8186195.671 6  -6229064.249 5
 94  3 22 18 40 30.0010000  0  7 19 29 31 22 28 18 27
  21416062.498     4880589.970 8  -3548904.751 9
  21606648.389     2264060.697 8   3617262.785 9
  23154718.632    -7107188.405 6  -5777621.614 4
  25064252.479    13119577.122 4  10175734.820 2
  23581565.232    -4569498.302 6  -3184062.201 5
  20542984.388    16447439.215 8  -1683046.933 9
  23075495.627    -8246826.747 6  -6276309.240 5
 94  3 22 18 41  0.0010000  0  7 19 29 31 22 28 18 27
  21411803.767     4858216.231 8  -3566338.819 9
  21618551.318     2326608.998 8   3666001.689 9
  23143501.897    -7166126.294 6  -5823547.158 4
  25085889.370    13233319.440 4  10264365.117 2
  23580144.696    -4576962.717 6  -3189878.619 5
  20544881.804    16457420.066 8  -1675269.661 9
  23063984.556    -8307367.803 6  -6323484.048 5
 94  3 22 18 41 30.0010000  0  7 19 29 31 22 28 18 27
  21407588.175     4836067.320 8  -3583597.704 9
  21630532.824     2389578.067 8   3715068.458 9
  23132346.889    -7224742.814 6  -5869222.308 4
  25107554.742    13347101.336 4  10353026.302 2
  23578821.891    -4583943.275 6  -3195317.999 5
  20546871.317    16467874.263 8  -1667123.542 9
  23052480.410    -8367818.388 6  -6370588.378 5
 94  3 22 18 42  0.0010000  0  7 19 29 31 22 28 18 27
  21403412.786     4814136.162 8  -3600686.913 9
  21642594.434     2452960.198 8   3764457.085 9
  23121256.937    -7283020.173 6  -5914633.167 4
  25129207.312    13460940.192 4  10441731.857 2
  23577587.436    -4590418.148 6  -3200363.336 5
  20548954.935    16478804.652 8  -1658606.374 9
  23040994.881    -8428175.308 6  -6417619.731 5
 94  3 22 18 42 30.0010000  0  7 19 29 31 22 28 18 27
  21399281.526     4792416.365 9  -3617611.418 9
  21654732.641     2516738.471 8   3814154.382 9
  23110236.536    -7340943.138 6  -5959767.886 4
  25150892.529    13574835.610 4  10530481.470 2
  23576453.681    -4596365.577 6  -3204997.678 5
  20551120.036    16490185.785 8  -1649737.973 9
  23029524.132    -8488415.897 6  -6464560.428 5
 94  3 22 18 43  0.0010000  0  7 19 29 31 22 28 18 27
  21395187.050     4770902.709 9  -3634375.293 9
  21666941.598     2580910.736 8   3864158.708 9
  23099288.385    -7398490.622 6  -6004610.005 4
  25172568.424    13688796.129 4  10619281.836 3
  23575425.902    -4601765.314 5  -3209205.231 5
  20553374.145    16502029.512 8  -1640509.101 9
  23018086.420    -8548523.907 6  -6511397.815 5
 94  3 22 18 43 30.0010000  0  7 19 29 31 22 28 18 27
  21391130.888     4749590.521 9  -3650982.192 9
  21679226.824     2645460.874 8   3914457.445 9
  23088407.538    -7455659.013 6  -6049156.737 4
  25194269.500    13802823.010 4  10708133.910 3
  23574507.938    -4606607.822 6  -3212978.612 5
  20555717.323    16514348.657 8  -1630909.793 9
  23006678.778    -8608495.445 6  -6558128.855 5
 94  3 22 18 44  0.0010000  0  6 19 29 31 28 18 27
  21387114.779     4728490.139 9  -3667424.033 9
  21691584.149     2710400.157 8   3965059.425 9
  23077598.491    -7512447.974 6  -6093407.794 4
  23573688.185    -4610903.127 6  -3216325.578 5
  20558155.025    16527147.138 8  -1620936.960 9
  22995292.540    -8668333.889 6  -6604756.184 5
 94  3 22 18 44 30.0010000  0  6 19 29 31 28 18 27
  21383143.308     4707606.633 9  -3683696.888 9
  21704019.900     2775744.639 8   4015977.151 9
  23066869.309    -7568844.227 6  -6137352.866 4
  23572971.981    -4614653.637 5  -3219248.029 5
  20560682.036    16540439.813 8  -1610579.054 9
  22983929.387    -8728041.409 6  -6651281.496 5
 94  3 22 18 45  0.0010000  0  6 19 29 31 28 18 27
  21379209.701     4686938.912 9  -3699801.592 9
  21716535.006     2841503.473 8   4067217.742 9
  23056213.905    -7624843.920 6  -6180988.934 4
  23572363.043    -4617866.001 5  -3221751.162 5
  20563309.057    16554242.367 8  -1599823.835 9
  22972588.268    -8787624.306 6  -6697709.684 5
 94  3 22 18 45 30.0010000  0  6 19 29 31 28 18 27
  21375315.037     4666483.221 9  -3715741.092 9
  21729122.781     2907667.842 7   4118774.327 9
  23045626.944    -7680455.000 6  -6224322.185 4
  23571854.085    -4620537.325 5  -3223832.693 5
  20566032.402    16568553.253 8  -1588672.525 9
  22961278.508    -8847080.273 6  -6744038.999 5
 94  3 22 18 46  0.0010000  0  6 19 29 31 28 18 27
  21371461.565     4646228.644 9  -3731523.867 9
  21741794.169     2974249.210 7   4170655.857 9
  23035122.726    -7735666.177 6  -6267343.800 4
  23571453.322    -4622667.671 6  -3225492.672 5
  20568852.100    16583369.086 8  -1577127.735 9
  22949988.474    -8906415.275 6  -6790274.026 6
 94  3 22 18 46 30.0010000  0  6 19 29 31 28 18 27
  21367639.931     4626162.841 9  -3747159.561 9
  21754544.462     3041242.011 7   4222857.971 9
  23024694.416    -7790473.043 6  -6310050.382 4
  23571149.633    -4624241.502 6  -3226719.008 5
  20571767.072    16598688.547 8  -1565190.520 9
  22938718.436    -8965616.909 6  -6836405.129 6
 94  3 22 18 47  0.0010000  0  6 19 29 31 28 18 27
  21363861.167     4606290.072 9  -3762644.833 9
  21767369.943     3108651.117 7   4275384.492 9
  23014340.514    -7844875.718 6  -6352442.015 4
  23570952.699    -4625270.293 6  -3227520.678 5
  20574777.618    16614512.160 8  -1552860.456 9
  22927491.058    -9024671.811 6  -6882421.894 6
 94  3 22 18 47 30.0010000  0  6 19 29 31 28 18 27
  21360119.427     4586607.357 9  -3777981.998 9
  21780276.189     3176478.578 7   4328237.015 9
  23004065.607    -7898856.530 6  -6394504.910 4
  23570861.172    -4625751.281 6  -3227895.452 5
  20577884.337    16630842.673 8  -1540135.390 9
  22916270.966    -9083581.737 6  -6928325.686 6
 94  3 22 18 48  0.0010000  0  6 19 29 31 28 18 27
  21356409.645     4567121.611 9  -3793165.704 9
  21793265.806     3244734.161 7   4381423.109 9
  22993878.329    -7952400.821 6  -6436227.666 4
  23570874.873    -4625687.067 6  -3227845.420 5
  20581089.838    16647672.743 8  -1527021.084 9
  22905090.716    -9142352.515 6  -6974121.060 6
 94  3 22 18 48 30.0010000  0  6 19 29 31 28 18 27
  21352739.766     4547848.461 9  -3808183.735 9
  21806331.841     3313392.670 7   4434923.181 9
  22983770.287    -8005520.480 6  -6477619.532 4
  23570985.466    -4625084.654 6  -3227375.990 5
  20584385.846    16664990.490 8  -1513526.758 9
  22893934.299    -9200996.138 6  -7019817.355 6
 94  3 22 18 49  0.0010000  0  6 19 29 31 28 18 27
  21349118.603     4528801.141 9  -3823025.791 9
  21819471.864     3382443.547 7   4488729.017 9
  22973739.981    -8058217.610 6  -6518682.139 4
  23571204.225    -4623941.371 6  -3226485.081 5
  20587770.893    16682788.877 8  -1499657.898 9
  22882795.031    -9259523.805 6  -7065423.278 6
 94  3 22 18 49 30.0010000  0  6 19 29 31 28 18 27
  21345533.025     4509971.982 9  -3837697.856 9
  21832683.538     3451868.587 7   4542826.365 9
  22963793.646    -8110504.778 6  -6559425.291 4
  23571523.594    -4622237.959 6  -3225157.750 5
  20591247.916    16701056.307 8  -1485423.566 9
  22871673.510    -9317947.756 6  -7110948.400 6
 94  3 22 18 50  0.0010000  0  6 19 29 31 28 18 27
  21341994.515     4491381.669 9  -3852183.811 9
  21845965.363     3521666.297 7   4597214.136 9
  22953917.494    -8162397.853 6  -6599861.404 4
  23571960.062    -4619977.014 6  -3223395.951 5
  20594813.108    16719798.990 8  -1470818.902 9
  22860572.075    -9376261.631 6  -7156387.749 6
 94  3 22 18 50 30.0010000  0  6 19 29 31 28 18 27
  21338504.541     4473029.696 9  -3866484.047 9
  21859318.149     3591833.866 7   4651890.097 9
  22944118.477    -8213900.399 6  -6639993.199 5
  23572496.300    -4617166.235 6  -3221205.728 5
  20598471.175    16739023.916 8  -1455838.457 9
  22849508.025    -9434446.433 6  -7201726.510 6
 94  3 22 18 51  0.0010000  0  6 19 29 31 28 18 27
  21335050.122     4454884.668 9  -3880623.022 9
  21872740.937     3662378.697 7   4706860.018 9
  22934389.253    -8265014.406 6  -6679822.213 5
  23573132.940    -4613816.768 6  -3218595.740 5
  20602221.669    16758721.729 8  -1440489.542 9
  22838457.915    -9492500.451 6  -7246963.360 6
 94  3 22 18 51 30.0010000  0  7 19 29 31 28  2 18 27
  21331635.216     4436944.560 9  -3894602.334 9
  21886240.141     3733316.464 7   4762136.126 9
  22924737.464    -8315731.610 6  -6719342.063 5
  23573874.506    -4609936.618 6  -3215572.228 5
  25290670.463       34803.71314   -208075.572
  20606058.143    16778898.283 8  -1424767.569 9
  22827437.094    -9550427.966 7  -7292101.654 6
 94  3 22 18 52  0.0010000  0  7 19 29 31 28  2 18 27
  21328262.671     4419219.185 9  -3908414.308 9
  21899818.611     3804660.323 7   4817728.692 8
  22915168.119    -8366022.894 6  -6758530.012 5
  23574708.289    -4605522.999 6  -3212133.004 5
  25273836.157      -53683.812 5   -277026.733 1
  20609990.281    16799561.354 8  -1408666.491 9
  22816441.876    -9608219.687 7  -7337134.132 6
 94  3 22 18 52 30.0010000  0  7 19 29 31 28  2 18 27
  21324927.120     4401687.517 9  -3922075.348 9
  21913472.449     3876404.800 7   4873633.413 8
  22905680.617    -8415877.120 6  -6797377.412 5
  23575658.481    -4600555.802 6  -3208262.467 5
  25257033.719     -142039.049 5   -345874.827 1
  20614013.256    16820697.008 8  -1392197.174 9
  22805460.898    -9665880.129 6  -7382064.304 6
 94  3 22 18 53  0.0010000  0  7 19 29 31 28  2 18 27
  21321625.985     4384347.142 9  -3935587.323 9
  21927196.408     3948545.081 7   4929846.568 8
  22896280.325    -8465291.581 6  -6835882.143 5
  23576710.783    -4595023.944 6  -3203951.907 5
  25240237.008     -230266.283 5   -414623.162 1
  20618125.119    16842305.620 8  -1375359.305 9
  22794515.565    -9723428.880 7  -7426907.459 6
 94  3 22 18 53 30.0010000  0  7 19 29 31 28  2 18 27
  21318366.582     4367197.796 9  -3948950.445 9
  21940998.433     4021067.185 7   4986357.213 8
  22886955.820    -8514265.000 6  -6874043.212 5
  23577873.977    -4588919.585 6  -3199195.244 5
  25223471.264     -318357.014 5   -483265.124 2
  20622327.550    16864394.730 8  -1358147.027 9
  22783580.096    -9780876.854 7  -7471672.083 6
 94  3 22 18 54  0.0010000  0  7 19 29 31 28  2 18 27
  21315136.318     4350222.664 9  -3962177.824 9
  21954864.613     4093951.766 7   5043150.331 8
  22877722.392    -8562804.840 6  -6911866.429 5
  23579138.472    -4582255.533 6  -3194002.474 5
  25206738.288     -406316.211 5   -551804.635 2
  20626619.558    16886948.959 8  -1340572.329 9
  22772676.044    -9838214.570 7  -7516350.806 7
 94  3 22 18 54 30.0010000  0  7 19 29 31 28  2 18 27
  21311935.884     4333424.200 9  -3975267.547 9
  21968806.282     4167204.712 7   5100230.475 8
  22868567.180    -8610920.426 6  -6949359.073 5
  23580514.609    -4575035.164 5  -3188376.229 5
  25190017.664     -494159.235 5   -620253.552 2
  20631007.441    16909990.626 8  -1322617.799 9
  22761782.306    -9895436.956 7  -7560939.639 7
 94  3 22 18 55  0.0010000  0  7 19 29 31 28  2 18 27
  21308778.020     4316823.103 9  -3988203.467 9
  21982819.840     4240835.426 7   5157604.990 8
  22859492.073    -8658599.522 6  -6986511.583 5
  23581990.638    -4567271.276 5  -3182326.449 5
  25173321.532     -581888.188 5   -688613.588 2
  20635489.188    16933551.190 8  -1304258.947 9
  22750914.889    -9952531.278 7  -7605428.707 7
 94  3 22 18 55 30.0010000  0  7 19 29 31 28  2 18 27
  21305660.088     4300418.844 9  -4000985.997 9
  21996901.242     4314846.725 7   5215276.073 8
  22850502.736    -8705841.471 6  -7023323.463 5
  23583567.516    -4558982.816 6  -3175867.883 5
  25156644.018     -669512.471 5   -756892.076 2
  20640069.477    16957622.010 8  -1285502.484 9
  22740074.154   -10009495.448 7  -7649816.358 7
 94  3 22 18 56  0.0010000  0  7 19 29 31 28  2 18 27
  21302574.714     4284220.277 9  -4013608.293 9
  22011057.832     4389237.302 7   5273242.690 8
  22841597.521    -8752639.036 7  -7059789.113 5
  23585243.296    -4550179.103 6  -3169007.896 5
  25139993.275     -757031.777 5   -825088.750 2
  20644748.758    16982208.769 8  -1266343.988 9
  22729261.899   -10066326.532 7  -7694100.305 7
 94  3 22 18 56 30.0010000  0  7 19 29 31 28  2 18 27
  21299532.121     4268237.083 9  -4026062.716 9
  22025283.344     4464007.390 7   5331505.019 8
  22832779.276    -8798985.616 6  -7095903.296 5
  23587012.911    -4540850.783 6  -3161739.088 5
  25123363.188     -844445.412 5   -893203.064 2
  20649524.602    17007317.995 8  -1246778.396 9
  22718472.549   -10123034.481 7  -7738288.283 7
 94  3 22 18 57  0.0010000  0  7 19 29 31 28  2 18 27
  21296535.725     4252467.203 9  -4038350.930 9
  22039586.622     4539158.752 7   5390064.450 8
  22824041.225    -8844868.424 7  -7131656.100 5
  23588890.181    -4531006.076 6  -3154067.914 5
  25106739.156     -931750.334 4   -961232.684 2
  20654398.597    17032920.286 8  -1226828.574 9
  22707706.552   -10179632.037 7  -7782390.240 7
 94  3 22 18 57 30.0010000  0  7 19 29 31 28  2 18 27
  21293569.998     4236901.237 8  -4050480.251 9
  22053957.623     4614693.376 7   5448922.550 8
  22815403.185    -8890295.729 6  -7167053.990 5
  23590868.631    -4520627.560 6  -3145980.768 5
  25090162.102    -1018936.030 5  -1029169.426 2
  20659357.944    17058999.867 8  -1206506.845 9
  22696948.380   -10236127.694 7  -7826412.791 7
 94  3 22 18 58  0.0010000  0  7 19 29 31 28  2 18 27
  21290646.152     4221536.213 8  -4062453.004 9
  22068405.611     4690596.939 7   5508068.114 8
  22806842.102    -8935275.243 6  -7202102.933 5
  23592948.532    -4509702.302 6  -3137467.617 5
  25073593.383    -1105985.136 4  -1096999.741 2
  20664415.533    17085554.118 8  -1185815.248 9
  22686219.137   -10292520.791 7  -7870355.444 7
 94  3 22 18 58 30.0010000  0  7 19 29 31 28  2 18 27
  21287763.798     4206383.280 9  -4074260.502 9
  22082923.360     4766892.475 7   5567519.127 8
  22798368.798    -8979804.792 7  -7236801.262 5
  23595135.068    -4498212.900 6  -3128514.850 5
  25057052.334    -1192884.789 4  -1164713.603 2
  20669559.372    17112586.892 8  -1164750.768 9
  22675505.844   -10348801.828 7  -7914210.761 7
 94  3 22 18 59  0.0010000  0  7 19 29 31 28  2 18 27
  21284925.842     4191463.643 8  -4085886.175 9
  22097520.975     4843605.168 7   5627295.188 7
  22789986.571    -9023868.526 7  -7271136.620 5
  23597432.108    -4486132.422 6  -3119101.529 5
  25040551.067    -1279586.789 4  -1232273.407 2
  20674799.084    17140122.664 8  -1143294.348 9
  22664821.091   -10404945.097 7  -7957958.734 7
 94  3 22 18 59 30.0010000  0  7 19 29 31 28  2 18 27
  21282131.777     4176781.820 9  -4097326.561 9
  22112197.075     4920720.657 7   5687385.112 7
  22781688.165    -9067473.319 6  -7305114.372 5
  23599837.343    -4473456.738 6  -3109224.394 5
  25024101.785    -1366074.705 4  -1299666.459 2
  20680135.510    17168180.105 8  -1121431.432 9
  22654170.964   -10460937.397 7  -8001589.067 7
 94  3 22 19  0  0.0010000  0  7 19 29 31 28  2 18 27
  21279380.491     4162319.914 9  -4108595.602 9
  22126943.176     4998210.290 7   5747766.584 7
  22773474.062    -9110632.163 7  -7338744.596 5
  23602359.227    -4460225.163 6  -3098914.110 5
  25007675.047    -1452375.018 4  -1366913.371 2
  20685571.857    17196742.923 8  -1099174.714 9
  22643537.685   -10516796.235 7  -8045115.378 7
 94  3 22 19  0 30.0010000  0  7 19 29 31 28  2 18 27
  21276667.070     4148064.000 9  -4119704.094 9
  22141758.619     5076072.686 7   5808438.513 7
  22765345.699    -9153339.391 7  -7372022.920 5
  23604982.441    -4446445.106 6  -3088176.438 5
  24991283.085    -1538516.160 4  -1434036.224 2
  20691101.708    17225811.444 8  -1076523.951 9
  22632934.326   -10572529.496 7  -8088543.879 7
 94  3 22 19  1  0.0010000  0  7 19 29 31 28  2 18 27
  21273990.853     4134014.573 9  -4130651.694 9
  22156642.446     5154293.525 7   5869389.737 7
  22757305.655    -9195585.906 7  -7404942.251 5
  23607711.601    -4432117.525 6  -3077012.133 5
  24974924.460    -1624510.700 4  -1501044.848 2
  20696734.149    17255389.261 8  -1053476.329 9
  22622354.890   -10628132.391 7  -8131870.773 7
 94  3 22 19  1 30.0010000  0  7 19 29 31 28  2 18 27
  21271353.728     4120155.421 9  -4141451.028 9
  22171597.712     5232869.845 7   5930617.981 7
  22749359.956    -9237358.489 7  -7437492.277 5
  23610543.921    -4417244.856 6  -3065423.041 5
  24958573.329    -1710384.448 4  -1567959.357 2
  20702456.857    17285472.897 8  -1030034.570 9
  22611796.739   -10683609.849 7  -8175099.937 7
 94  3 22 19  2  0.0010000  0  7 19 29 31 28  2 18 27
  21268752.819     4106482.963 9  -4152104.894 9
  22186616.415     5311810.162 7   5992129.820 7
  22741502.575    -9278636.469 6  -7469656.925 5
  23613476.730    -4401808.985 6  -3053395.134 5
  24942256.315    -1796142.884 4  -1634784.041 2
  20708281.435    17316068.681 8  -1006193.732 9
  22601262.811   -10738957.357 7  -8218227.837 7
 94  3 22 19  2 30.0010000  0  7 19 29 31 28  2 18 27
  21266186.805     4092994.373 9  -4162615.478 9
  22201712.464     5391114.430 7   6053925.283 7
  22733741.129    -9319423.267 6  -7501438.810 5
  23616525.949    -4385796.584 6  -3040917.931 5
  24925963.195    -1881788.333 4  -1701520.677 2
  20714197.599    17347159.028 8   -981967.518 9
  22590757.724   -10794176.692 7  -8261255.851 7
 94  3 22 19  3  0.0010000  0  7 19 29 31 28  2 18 27
  21263654.129     4079687.448 9  -4172984.504 9
  22216872.279     5470777.056 7   6115999.981 7
  22726067.731    -9359731.946 6  -7532848.158 5
  23619674.130    -4369215.607 6  -3027997.680 5
  24909690.310    -1967315.941 4  -1768165.506 3
  20720203.911    17378729.521 8   -957367.164 9
  22580269.485   -10849279.662 7  -8304193.215 7
 94  3 22 19  3 30.0010000  0  7 19 29 31 28  2 18 27
  21261154.789     4066552.940 9  -4183219.188 9
  22232097.449     5550798.072 7   6178353.940 7
  22718491.316    -9399565.663 6  -7563887.364 5
  23622947.684    -4352067.304 6  -3014635.402 5
  24893435.533    -2052711.429 4  -1834707.315 3
  20726299.531    17410778.709 8   -932393.798 9
  22569809.366   -10904262.413 7  -8347036.868 7
 94  3 22 19  4  0.0010000  0  7 19 29 31 28  2 18 27
  21258692.443     4053624.373 9  -4193293.382 9
  22247396.068     5631192.264 7   6240998.696 7
  22711001.451    -9438906.568 6  -7594542.595 5
  23626309.886    -4334341.626 6  -3000823.140 4
  24877218.470    -2137954.236 4  -1901130.238 3
  20732497.920    17443320.538 8   -907036.549 9
  22559371.072   -10959106.918 7  -8389772.822 7
 94  3 22 19  4 30.0010000  0  7 19 29 31 28  2 18 27
  21256278.485     4040937.237 9  -4203179.475 9
  22262774.822     5712004.281 7   6303968.990 7
  22703618.522    -9477716.459 6  -7624784.060 5
  23629808.614    -4316015.815 6  -2986543.305 4
  24861023.711    -2223008.029 4  -1967405.867 3
  20738787.176    17476381.466 8   -881274.817 9
  22548966.206   -11013784.509 7  -8432378.731 7
 94  3 22 19  5  0.0010000  0  7 19 29 31 28  2 18 27
  21253908.805     4028469.084 9  -4212894.916 9
  22278228.164     5793209.163 7   6367245.440 7
  22696334.974    -9515998.628 6  -7654614.302 5
  23633387.806    -4297120.921 6  -2971819.994 4
  24844876.260    -2307882.292 4  -2033541.564 3
  20745175.844    17509957.089 8   -855112.042 9
  22538590.838   -11068305.269 7  -8474862.434 7
 94  3 22 19  5 30.0010000  0  7 19 29 31 28  2 18 27
  21251568.655     4016192.451 9  -4222461.117 9
  22293750.278     5874776.168 7   6430804.061 7
  22689148.409    -9553773.818 6  -7684049.499 5
  23637100.016    -4277687.933 6  -2956677.428 4
  24828754.171    -2392591.735 4  -2099548.844 3
  20751659.575    17544027.981 8   -828563.307 9
  22528246.140   -11122686.658 7  -8517237.520 7
 94  3 22 19  6  0.0010000  0  7 19 29 31 28  2 18 27
  21249270.986     4004116.167 9  -4231871.212 9
  22309337.657     5956699.196 7   6494640.107 7
  22682053.191    -9591049.306 6  -7713095.292 5
  23640892.631    -4257725.947 6  -2941122.629 4
  24812661.672    -2477141.498 4  -2165431.698 3
  20758234.533    17578585.606 8   -801635.311 9
  22517918.230   -11176944.673 7  -8559516.472 7
 94  3 22 19  6 30.0010000  0  7 19 29 31 28  2 18 27
  21247013.878     3992248.519 9  -4241118.727 9
  22324996.656     6038976.474 7   6558752.185 7
  22675048.930    -9627839.281 6  -7741762.805 5
  23644799.196    -4237220.432 6  -2925144.301 4
  24796607.456    -2561518.257 4  -2231179.723 3
  20764904.106    17613642.116 8   -774318.579 9
  22507616.911   -11231069.438 7  -8601691.603 7
 94  3 22 19  7  0.0010000  0  7 19 29 31 28  2 18 27
  21244798.112     3980597.501 9  -4250197.437 9
  22340717.023     6121599.608 7   6623133.758 7
  22668144.920    -9664160.095 6  -7770064.684 5
  23648802.535    -4216162.363 6  -2908735.385 4
  24780600.038    -2645719.054 4  -2296790.611 3
  20771673.899    17649205.602 8   -746606.794 9
  22497350.308   -11285051.708 7  -8643755.676 7
 94  3 22 19  7 30.0010000  0  7 19 29 31 28  2 18 27
  21242623.538     3969176.559 9  -4259096.884 9
  22356506.313     6204573.377 7   6687788.563 7
  22661318.885    -9700013.962 6  -7798002.763 5
  23652919.734    -4194542.905 6  -2891889.046 4
  24764590.221    -2729756.018 4  -2362273.871 3
  20778540.166    17685278.645 8   -718497.956 9
  22487099.085   -11338906.321 7  -8685720.301 7
 94  3 22 19  8  0.0010000  0  8 19 29 31 16 28  2 18 27
  21240497.949     3957987.834 9  -4267815.370 9
  22372364.045     6287904.496 7   6752721.809 7
  22654589.024    -9735382.731 6  -7825562.814 5
  25236878.523    -4651829.65115  -3628427.901 2
  23657142.311    -4172349.397 6  -2874595.402 4
  24748638.744    -2813641.220 5  -2427638.861 3
  20785499.428    17721859.903 8   -689993.113 9
  22476870.676   -11392644.901 7  -8727594.492 7
 94  3 22 19  8 30.0010000  0  8 19 29 31 16 28  2 18 27
  21238411.604     3947043.439 9  -4276343.479 9
  22388297.864     6371625.120 7   6817958.569 7
  22647958.934    -9770218.701 6  -7852707.695 5
  25225805.988    -4709941.412 5  -3673709.897 2
  23661480.548    -4149552.195 6  -2856831.354 4
  24732701.747    -2897353.138 5  -2492868.796 3
  20792563.138    17758968.381 8   -661077.439 9
  22466675.364   -11446240.683 7  -8769357.413 7
 94  3 22 19  9  0.0010000  0  8 19 29 31 16 28  2 18 27
  21236375.563     3936332.195 9  -4284689.914 9
  22404302.644     6455734.529 7   6883498.286 7
  22641431.133    -9804503.508 6  -7879423.103 5
  25214847.374    -4767613.873 5  -3718649.412 2
  23665924.252    -4126169.348 6  -2838610.967 4
  24716808.969    -2980883.078 5  -2557957.003 3
  20799721.852    17796591.472 8   -631760.769 9
  22456501.547   -11499695.896 7  -8811010.806 7
 94  3 22 19  9 30.0010000  0  8 19 29 31 16 28  2 18 27
  21234378.256     3925828.430 9  -4292874.673 9
  22420375.987     6540196.353 7   6949312.599 7
  22635011.677    -9838252.565 6  -7905721.025 5
  25203955.884    -4824868.878 5  -3763263.709 2
  23670480.497    -4102242.013 6  -2819966.292 4
  24700934.839    -3064245.927 5  -2622914.902 3
  20806974.192    17834699.519 8   -602066.225 9
  22446347.937   -11553050.798 7  -8852586.035 7
 94  3 22 19 10  0.0010000  0  8 19 29 31 16 28  2 18 27
  21232414.495     3915531.272 9  -4300898.435 9
  22436516.183     6625012.923 7   7015403.344 7
  22628691.303    -9871464.759 6  -7931600.627 5
  25193134.816    -4881678.530 5  -3807531.018 2
  23675140.801    -4077768.618 6  -2800896.109 4
  24685119.138    -3147414.171 5  -2687721.183 3
  20814317.038    17873288.441 8   -571996.956 9
  22436216.870   -11606281.270 7  -8894064.312 7
 94  3 22 19 10 30.0010000  0  8 19 29 31 16 28  2 18 27
  21230493.575     3905439.893 9  -4308761.846 9
  22452715.678     6710162.239 7   7081753.371 7
  22622471.659    -9904164.793 6  -7957081.131 6
  25182411.479    -4938052.709 5  -3851458.885 2
  23679896.559    -4052770.922 6  -2781417.383 4
  24669329.638    -3230383.204 5  -2752372.257 2
  20821751.232    17912356.849 8   -541554.083 9
  22426113.325   -11659368.540 7  -8935430.990 7
 94  3 22 19 11  0.0010000  0  8 19 29 31 16 28  2 18 27
  21228611.808     3895544.178 9  -4316472.802 9
  22468983.107     6795628.281 7   7148350.179 7
  22616339.794    -9936378.939 6  -7982182.996 6
  25171764.680    -4994011.986 5  -3895063.538 2
  23684749.449    -4027260.820 6  -2761539.410 4
  24653576.504    -3313161.445 5  -2816874.668 2
  20829277.042    17951909.701 8   -510733.708 9
  22416039.729   -11712318.378 7  -8976690.597 7
 94  3 22 19 11 30.0010000  0  8 19 29 31 16 28  2 18 27
  21226763.797     3885826.595 9  -4324044.942 9
  22485304.348     6881411.384 7   7215194.074 7
  22610300.774    -9968113.676 6  -8006911.313 6
  25161181.377    -5049551.401 5  -3938341.022 2
  23689702.620    -4001226.802 6  -2741253.198 4
  24637858.326    -3395779.788 5  -2881252.455 2
  20836894.528    17991946.444 8   -479536.281 9
  22405986.608   -11765145.816 7  -9017854.808 7
 94  3 22 19 12  0.0010000  0  8 19 29 31 16 28  2 18 27
  21224946.395     3876276.433 9  -4331486.634 9
  22501696.759     6967536.179 7   7282304.191 6
  22604352.293    -9999367.203 6  -8031264.662 6
  25150708.307    -5104665.941 5  -3981287.402 2
  23694759.909    -3974651.865 6  -2720545.507 4
  24622160.773    -3478254.924 5  -2945518.679 2
  20844605.520    18032463.913 8   -447964.278 9
  22395960.139   -11817838.558 7  -9058914.081 7
 94  3 22 19 12 30.0010000  0  8 19 29 31 16 28  2 18 27
  21223161.011     3866885.879 9  -4338803.959 9
  22518150.719     7054003.414 7   7349681.171 6
  22598497.586   -10030137.756 6  -8055241.663 6
  25140302.571    -5159368.430 5  -4023912.733 2
  23699922.845    -3947531.553 6  -2699412.831 4
  24606502.163    -3560596.183 5  -3009680.593 2
  20852408.338    18073473.623 8   -416008.696 9
  22385954.476   -11870415.241 7  -9099882.908 7
 94  3 22 19 13  0.0010000  0  8 19 29 31 16 28  2 18 27
  21221401.200     3857651.209 9  -4345999.797 9
  22534669.373     7140830.701 7   7417338.694 6
  22592732.876   -10060416.413 6  -8078835.361 6
  25129952.416    -5213647.941 5  -4066208.436 2
  23705192.147    -3919857.954 6  -2677849.045 4
  24590843.343    -3642804.794 5  -3073739.166 2
  20860307.060    18114972.717 8   -383671.777 9
  22375966.950   -11922898.643 7  -9140779.047 7
 94  3 22 19 13 30.0010000  0  8 19 29 31 16 28  2 18 27
  21219679.102     3848594.121 9  -4353057.270 9
  22551263.215     7228019.460 7   7485277.885 6
  22587070.007   -10090183.698 6  -8102030.577 6
  25119716.092    -5267502.511 5  -4108173.041 2
  23710561.760    -3891616.911 6  -2655843.047 4
  24575231.621    -3724866.896 5  -3137683.569 2
  20868297.398    18156958.628 8   -350955.512 9
  22365999.451   -11975273.107 7  -9181590.291 7
 94  3 22 19 14  0.0010000  0  8 19 29 31 16 28  2 18 27
  21217991.810     3839735.992 9  -4359959.726 9
  22567921.663     7315558.520 7   7553490.035 6
  22581505.319   -10119432.807 6  -8124822.048 6
  25109544.644    -5320945.747 5  -4149817.141 2
  23716047.512    -3862820.392 6  -2633404.263 4
  24559655.904    -3806753.473 5  -3201491.190 2
  20876381.002    18199436.573 8   -317855.872 9
  22356056.594   -12027525.711 7  -9222306.602 7
 94  3 22 19 14 30.0010000  0  8 19 29 31 16 28  2 18 27
  21216352.485     3831102.578 9  -4366687.061 9
  22584644.206     7403435.887 7   7621965.797 6
  22576041.692   -10148135.738 6  -8147187.916 6
  25099456.508    -5373964.929 5  -4191130.759 2
  23721632.076    -3833458.736 6  -2610525.084 4
  24544106.599    -3888436.098 5  -3265139.901 2
  20884558.591    18242425.756 8   -284357.853 9
  22346142.457   -12079640.580 7  -9262915.576 7
 94  3 22 19 15  0.0010000  0  8 19 29 31 16 28  2 18 27
  21214752.732     3822702.731 9  -4373232.402 9
  22601429.016     7491646.956 7   7690701.596 6
  22570686.589   -10176288.481 6  -8169125.071 6
  25089447.757    -5426561.128 5  -4232114.803 2
  23727326.184    -3803541.039 6  -2587212.638 4
  24528598.245    -3969923.158 5  -3328636.232 2
  20892837.540    18285910.726 8   -250473.496 9
  22336252.214   -12131600.029 7  -9303403.438 7
 94  3 22 19 15 30.0010000  0  8 19 29 31 16 28  2 18 27
  21213196.270     3814528.684 9  -4379601.795 9
  22618277.053     7580179.965 7   7759688.249 6
  22565430.418   -10203890.249 6  -8190632.889 6
  25079523.127    -5478733.185 5  -4272768.395 2
  23733122.041    -3773067.600 6  -2563467.164 4
  24513129.254    -4051215.049 5  -3391980.478 2
  20901202.319    18329881.151 8   -216210.878 9
  22326396.447   -12183399.089 7  -9343766.306 7
 94  3 22 19 16  0.0010000  0  8 19 29 31 16 28  2 18 27
  21211678.241     3806562.368 9  -4385809.325 9
  22635186.007     7669033.811 7   7828924.901 6
  22560280.942   -10230953.959 6  -8211721.478 6
  25069680.281    -5530467.328 5  -4313080.695 2
  23739028.553    -3742054.081 6  -2539300.833 4
  24497699.356    -4132322.050 5  -3455180.704 2
  20909662.192    18374334.966 8   -181571.572 9
  22316566.582   -12235057.248 7  -9384019.400 7
 94  3 22 19 16 30.0010000  0  8 19 29 31 16 28  2 18 27
  21210202.542     3798786.849 9  -4391868.172 9
  22652155.249     7758215.486 7   7898416.992 6
  22555227.731   -10257495.205 7  -8232402.936 6
  25059921.797    -5581758.287 5  -4353047.673 2
  23745026.110    -3710495.143 6  -2514709.497 4
  24482291.372    -4213260.031 5  -3518249.183 2
  20918209.035    18419255.262 8   -146568.790 9
  22306757.613   -12286584.140 7  -9424170.185 7
 94  3 22 19 17  0.0010000  0  8 19 29 31 16 28  2 18 27
  21208753.645     3791185.497 9  -4397791.310 9
  22669188.557     7847730.035 7   7968168.477 6
  22550276.508   -10283522.255 7  -8252683.728 6
  25050249.383    -5632604.541 5  -4392668.166 2
  23751137.560    -3678400.978 6  -2489701.097 4
  24466926.829    -4294039.725 5  -3581194.357 2
  20926845.756    18464637.782 8   -111205.847 9
  22296978.833   -12337993.054 7  -9464229.052 7
 94  3 22 19 17 30.0010000  0  8 19 29 31 16 28  2 18 27
  21207342.222     3783771.716 9  -4403568.296 9
  22686288.959     7937583.926 6   8038184.400 6
  22545427.665   -10309016.132 7  -8272549.062 6
  25040651.258    -5682979.765 5  -4431921.541 2
  23757344.822    -3645754.337 6  -2464262.182 4
  24451588.458    -4374642.878 5  -3644001.932 3
  20935573.614    18510502.166 8    -75467.397 9
  22287214.443   -12389295.749 7  -9504205.138 7
 94  3 22 19 18  0.0010000  0  8 19 29 31 16 28  2 18 27
  21205969.473     3776557.786 9  -4409189.544 9
  22703452.137     8027777.992 6   8108465.378 6
  22540681.711   -10333959.794 7  -8291985.669 6
  25031158.270    -5732873.042 5  -4470799.379 2
  23763668.285    -3612546.326 6  -2438385.806 4
  24436281.534    -4455063.390 5  -3706667.252 3
  20944396.446    18556865.102 8    -39340.468 9
  22277473.526   -12440487.826 7  -9544095.039 7
 94  3 22 19 18 30.0010000  0  8 19 29 31 16 28  2 18 27
  21204637.825     3769554.754 9  -4414646.466 9
  22720679.891     8118310.045 6   8179009.718 6
  22536041.913   -10358333.942 7  -8310978.512 6
  25021756.209    -5782277.887 5  -4509296.705 2
  23770095.775    -3578773.831 6  -2412069.639 4
  24421009.297    -4535294.518 5  -3769184.916 2
  20953316.711    18603732.492 8     -2820.472 9
  22267755.454   -12491552.898 7  -9583885.988 8
 94  3 22 19 19  0.0010000  0  8 19 29 31 16 28  2 18 27
  21203348.207     3762776.168 9  -4419928.494 9
  22737970.001     8209168.844 6   8249808.656 6
  22531517.415   -10382124.591 7  -8329516.667 6
  25012453.799    -5831189.535 5  -4547409.697 2
  23776626.934    -3544447.141 6  -2385321.566 4
  24405777.862    -4615332.594 5  -3831552.192 3
  20962334.138    18651124.793 8     34108.560 9
  22258062.924   -12542483.213 7  -9623571.917 8
 94  3 22 19 19 30.0010000  0  8 19 29 31 16 28  2 18 27
  21202102.810     3756232.154 9  -4425027.729 9
  22755323.188     8300356.073 6   8320863.541 6
  22527100.992   -10405340.260 7  -8347606.800 6
  25003232.362    -5879611.658 5  -4585141.153 2
  23783263.439    -3509559.791 6  -2358136.624 4
  24390584.260    -4695166.704 5  -3893760.511 3
  20971449.448    18699033.973 8     71440.358 9
  22248400.403   -12593261.673 7  -9663139.504 8
 94  3 22 19 20  0.0010000  0  8 19 29 31 16 28  2 18 27
  21200900.822     3749911.713 9  -4429952.756 9
  22772741.159     8391884.327 6   8392184.136 6
  22522787.848   -10427987.984 7  -8365254.361 6
  24994110.577    -5927559.418 5  -4622503.091 2
  23790008.830    -3474117.547 6  -2330519.331 4
  24375438.475    -4774788.178 5  -3955803.127 3
  20980665.547    18747461.794 8    109176.293 9
  22238772.838   -12643853.377 7  -9702561.588 8
 94  3 22 19 20 30.0010000  0  8 19 29 31 16 28  2 18 27
  21199737.447     3743809.434 9  -4434707.779 9
  22790220.289     8483748.889 6   8463766.789 6
  22518583.469   -10450089.834 7  -8382476.579 6
  24985070.755    -5975050.187 5  -4659508.859 2
  23796858.817    -3438140.810 6  -2302485.486 4
  24360322.670    -4854206.690 5  -4017687.610 3
  20989978.061    18796391.808 8    147303.543 9
  22229183.616   -12694258.256 7  -9741838.077 8
 94  3 22 19 21  0.0010000  0  8 19 29 31 16 28  2 18 27
  21198617.453     3737929.143 9  -4439289.810 9
  22807769.360     8575950.705 6   8535612.237 6
  22514483.897   -10471644.954 7  -8399272.745 6
  24976136.191    -6022088.026 5  -4696161.690 2
  23803811.784    -3401623.178 6  -2274030.178 4
  24345249.195    -4933425.985 5  -4079416.842 3
  20999383.239    18845818.631 8    185817.924 9
  22219623.954   -12744488.145 7  -9780978.220 8
 94  3 22 19 21 30.0010000  0  8 19 29 31 16 28  2 18 27
  21197543.146     3732265.112 9  -4443703.353 9
  22825374.132     8668487.487 6   8607718.714 6
  22510486.644   -10492644.974 7  -8415636.415 6
  24967264.043    -6068675.783 5  -4732463.867 2
  23810861.224    -3364556.140 6  -2245146.794 4
  24330216.761    -5012445.361 5  -4140990.277 3
  21008881.654    18895735.970 8    224714.505 9
  22210097.240   -12794556.842 8  -9819992.784 8
 94  3 22 19 22  0.0010000  0  8 19 29 31 16 28  2 18 27
  21196504.245     3726814.454 9  -4447950.610 9
  22843045.429     8761335.448 7   8680067.648 6
  22506594.079   -10513079.466 7  -8431559.381 6
  24958478.145    -6114813.372 5  -4768415.210 2
  23818015.051    -3326948.615 6  -2215842.248 4
  24315209.301    -5091280.707 5  -4202420.300 3
  21018475.462    18946146.788 8    263995.627 9
  22200594.388   -12844489.589 7  -9858901.396 8
 94  3 22 19 22 30.0010000  0  8 19 29 31 16 28  2 18 27
  21195511.813     3721590.717 9  -4452021.049 9
  22860769.129     8854484.941 7   8752651.546 6
  22502819.093   -10532934.363 6  -8447030.725 6
  24949796.245    -6160483.539 5  -4804002.364 2
  23825280.462    -3288783.376 6  -2186103.079 4
  24300242.792    -5169933.358 5  -4263707.957 3
  21028162.086    18997053.685 8    303663.312 9
  22191115.910   -12894309.799 8  -9897722.314 8
 94  3 22 19 23  0.0010000  0  8 19 29 31 16 28  2 18 27
  21194557.843     3716577.660 9  -4455927.327 9
  22878552.248     8947924.650 7   8825461.590 6
  22499148.644   -10552208.622 6  -8462049.627 6
  24941170.227    -6205689.070 5  -4839227.486 2
  23832650.020    -3250057.141 6  -2155926.815 4
  24285311.389    -5248402.066 5  -4324852.271 3
  21037943.924    19048458.736 8    343719.137 9
  22181652.512   -12944032.305 8  -9936467.121 8
 94  3 22 19 23 30.0010000  0  8 19 29 31 16 28  2 18 27
  21193643.956     3711781.279 9  -4459664.774 9
  22896392.028     9041672.740 7   8898511.914 6
  22495593.255   -10570898.179 6  -8476612.899 6
  24932676.177    -6250413.598 5  -4874077.809 2
  23840125.225    -3210753.152 6  -2125300.337 4
  24270421.357    -5326660.884 5  -4385833.013 3
  21047821.756    19100369.169 8    384168.790 9
  22172216.214   -12993629.454 8  -9975114.247 8
 94  3 22 19 24  0.0010000  0  8 19 29 31 16 28  2 18 27
  21192771.020     3707193.743 9  -4463239.462 9
  22914290.956     9135739.899 7   8971810.884 6
  22492142.584   -10589018.724 7  -8490732.781 6
  24924264.271    -6294656.567 5  -4908552.783 2
  23847715.700    -3170880.117 6  -2094230.464 4
  24255570.688    -5404709.168 5  -4446649.729 3
  21057794.652    19152766.297 8    424997.678 9
  22162803.241   -13043088.456 8 -10013653.713 8
 94  3 22 19 24 30.0010000  0  8 19 29 31 16 28  2 18 27
  21191937.597     3702816.723 9  -4466650.117 9
  22932257.908     9230151.824 7   9045378.497 6
  22488802.986   -10606576.362 7  -8504414.039 6
  24915934.867    -6338407.474 5  -4942644.401 2
  23855402.918    -3130448.502 6  -2062725.297 4
  24240757.553    -5482533.052 5  -4507291.574 3
  21067857.756    19205654.576 8    466209.288 9
  22153417.428   -13092386.760 8 -10052067.944 8
 94  3 22 19 25  0.0010000  0  8 19 29 31 16 28  2 18 27
  21191144.436     3698630.791 9  -4469911.889 9
  22950286.018     9324893.340 7   9119202.923 6
  22485566.306   -10623596.662 7  -8517676.598 6
  24907696.391    -6381681.760 5  -4976364.638 2
  23863206.246    -3089488.744 6  -2030808.623 4
  24225986.359    -5560151.009 5  -4567772.954 3
  21078011.067    19259014.751 8    507788.619 9
  22144067.681   -13141523.711 8 -10090356.469 8
 94  3 22 19 25 30.0010000  0  8 19 29 31 16 28  2 18 27
  21190381.734     3694633.075 9  -4473026.982 9
  22968377.713     9419960.663 7   9193281.233 6
  22482426.010   -10640089.402 7  -8530528.038 6
  24899547.312    -6424476.439 5  -5009711.116 2
  23871096.754    -3048008.110 6  -1998486.079 4
  24211252.699    -5637568.690 5  -4628098.293 3
  21088255.604    19312844.054 8    549733.495 9
  22134752.020   -13190499.383 8 -10128519.321 8
 94  3 22 19 26  0.0010000  0  8 19 29 31 16 28  2 18 27
  21189654.617     3690834.109 9  -4475987.233 9
  22986532.755     9515355.931 6   9267615.070 6
  22479388.843   -10656048.221 7  -8542963.463 6
  24891499.503    -6466784.450 5  -5042678.424 2
  23879090.480    -3006013.641 6  -1965763.126 4
  24196566.016    -5714776.861 5  -4688260.359 4
  21098591.789    19367163.097 8    592059.971 9
  22125461.931   -13239317.241 8 -10166559.192 8
 94  3 22 19 26 30.0010000  0  8 19 29 31 16 28  2 18 27
  21188974.718     3687246.010 9  -4478783.127 9
  23004743.228     9611063.258 7   9342192.084 6
  22476457.652   -10671465.614 7  -8554976.974 6
  24883545.440    -6508601.184 5  -5075262.854 2
  23887175.073    -2963506.518 6  -1932640.698 4
  24181905.625    -5791780.061 5  -4748262.715 4
  21109025.046    19421982.690 8    634776.506 9
  22116200.563   -13287982.709 8 -10204480.301 8
 94  3 22 19 27  0.0010000  0  8 19 29 31 16 28  2 18 27
  21188334.781     3683877.128 9  -4481408.241 9
  23023013.449     9707076.639 6   9417007.578 6
  22473632.798   -10686321.113 7  -8566552.655 6
  24875665.095    -6549918.112 5  -5107457.836 2
  23895369.360    -2920455.414 6  -1899094.413 4
  24167293.711    -5868574.423 5  -4808102.337 4
  21119550.040    19477301.237 8    677881.829 9
  22106969.533   -13336503.375 8 -10242288.602 8
 94  3 22 19 27 30.0010000  0  8 19 29 31 16 28  2 18 27
  21187739.963     3680754.653 9  -4483841.344 9
  23041347.167     9803414.801 6   9492076.135 6
  22470915.569   -10700582.475 7  -8577665.379 6
  24867923.225    -6590722.110 5  -5139253.167 2
  23903671.393    -2876839.334 6  -1865107.863 4
  24152730.123    -5945120.103 5  -4867748.224 4
  21130175.014    19533133.503 8    721387.444 9
  22097763.147   -13384872.200 8 -10279978.583 8
